Wetterdaten: Sonntag, 09.11.2014
Datum Zeit Temp. Aussen +5cm Feuchte Auss Luftdruck Regen Sonnenschein Regendauer Solar Windben
09.11.2014 00:00 7,7 C 6,1 C 93 % 1008,9 hPa 0,0 l/m 0 min 0 min 0 W/m 18,8 km/h (3 Bft)
09.11.2014 00:02 7,6 C 6,1 C 93 % 1008,8 hPa 0,0 l/m 0 min 0 min 0 W/m 16,7 km/h (3 Bft)
09.11.2014 00:05 7,6 C 6,1 C 93 % 1008,9 hPa 0,0 l/m 0 min 0 min 0 W/m 16,7 km/h (3 Bft)
09.11.2014 00:07 7,6 C 6,1 C 93 % 1008,9 hPa 0,0 l/m 0 min 0 min 0 W/m 16,7 km/h (3 Bft)
09.11.2014 00:08 7,6 C 6,1 C 93 % 1008,9 hPa 0,0 l/m 0 min 0 min 0 W/m 14,6 km/h (3 Bft)
09.11.2014 00:10 7,6 C 6,1 C 93 % 1008,8 hPa 0,0 l/m 0 min 0 min 0 W/m 18,8 km/h (3 Bft)
09.11.2014 00:12 7,6 C 6,1 C 93 % 1008,7 hPa 0,0 l/m 0 min 0 min 0 W/m 18,8 km/h (3 Bft)
09.11.2014 00:14 7,6 C 6,1 C 93 % 1008,8 hPa 0,0 l/m 0 min 0 min 0 W/m 14,6 km/h (3 Bft)
09.11.2014 00:16 7,6 C 6,1 C 93 % 1008,7 hPa 0,0 l/m 0 min 0 min 0 W/m 18,8 km/h (3 Bft)
09.11.2014 00:18 7,6 C 6,1 C 93 % 1008,7 hPa 0,0 l/m 0 min 0 min 0 W/m 18,8 km/h (3 Bft)
09.11.2014 00:20 7,6 C 6,1 C 93 % 1008,6 hPa 0,0 l/m 0 min 0 min 0 W/m 18,8 km/h (3 Bft)
09.11.2014 00:22 7,6 C 6,1 C 93 % 1008,6 hPa 0,0 l/m 0 min 0 min 0 W/m 18,8 km/h (3 Bft)
09.11.2014 00:24 7,6 C 6,1 C 93 % 1008,7 hPa 0,0 l/m 0 min 0 min 0 W/m 18,8 km/h (3 Bft)
09.11.2014 00:26 7,6 C 6,1 C 93 % 1008,7 hPa 0,0 l/m 0 min 0 min 0 W/m 18,8 km/h (3 Bft)
09.11.2014 00:28 7,6 C 6,1 C 93 % 1008,6 hPa 0,0 l/m 0 min 0 min 0 W/m 18,8 km/h (3 Bft)
09.11.2014 00:30 7,5 C 6,1 C 93 % 1008,6 hPa 0,0 l/m 0 min 0 min 0 W/m 23,0 km/h (4 Bft)
09.11.2014 00:32 7,5 C 6,1 C 93 % 1008,5 hPa 0,0 l/m 0 min 0 min 0 W/m 18,8 km/h (3 Bft)
09.11.2014 00:34 7,5 C 6,1 C 93 % 1008,5 hPa 0,0 l/m 0 min 0 min 0 W/m 18,8 km/h (3 Bft)
09.11.2014 00:36 7,5 C 6,1 C 93 % 1008,6 hPa 0,0 l/m 0 min 0 min 0 W/m 18,8 km/h (3 Bft)
09.11.2014 00:38 7,5 C 6,1 C 93 % 1008,5 hPa 0,0 l/m 0 min 0 min 0 W/m 16,7 km/h (3 Bft)
09.11.2014 00:40 7,5 C 6,1 C 93 % 1008,5 hPa 0,0 l/m 0 min 0 min 0 W/m 16,7 km/h (3 Bft)
09.11.2014 00:42 7,5 C 6,1 C 93 % 1008,6 hPa 0,0 l/m 0 min 0 min 0 W/m 12,6 km/h (3 Bft)
09.11.2014 00:44 7,5 C 6,1 C 93 % 1008,5 hPa 0,0 l/m 0 min 0 min 0 W/m 14,6 km/h (3 Bft)
09.11.2014 00:46 7,5 C 6,1 C 93 % 1008,5 hPa 0,0 l/m 0 min 0 min 0 W/m 12,6 km/h (3 Bft)
09.11.2014 00:48 7,4 C 6,1 C 93 % 1008,6 hPa 0,0 l/m 0 min 0 min 0 W/m 18,8 km/h (3 Bft)
09.11.2014 00:50 7,4 C 6,1 C 93 % 1008,6 hPa 0,0 l/m 0 min 0 min 0 W/m 14,6 km/h (3 Bft)
09.11.2014 00:52 7,4 C 5,6 C 93 % 1008,5 hPa 0,0 l/m 0 min 0 min 0 W/m 16,7 km/h (3 Bft)
09.11.2014 00:54 7,4 C 5,6 C 93 % 1008,5 hPa 0,0 l/m 0 min 0 min 0 W/m 14,6 km/h (3 Bft)
09.11.2014 00:56 7,4 C 5,6 C 93 % 1008,5 hPa 0,0 l/m 0 min 0 min 0 W/m 12,6 km/h (3 Bft)
09.11.2014 00:58 7,4 C 5,6 C 93 % 1008,5 hPa 0,0 l/m 0 min 0 min 0 W/m 16,7 km/h (3 Bft)
09.11.2014 01:00 7,4 C 5,6 C 93 % 1008,5 hPa 0,0 l/m 0 min 0 min 0 W/m 14,6 km/h (3 Bft)
09.11.2014 01:02 7,4 C 5,6 C 93 % 1008,5 hPa 0,0 l/m 0 min 0 min 0 W/m 20,9 km/h (4 Bft)
09.11.2014 01:04 7,4 C 6,1 C 93 % 1008,4 hPa 0,0 l/m 0 min 0 min 0 W/m 16,7 km/h (3 Bft)
09.11.2014 01:06 7,4 C 6,1 C 93 % 1008,4 hPa 0,0 l/m 0 min 0 min 0 W/m 12,6 km/h (3 Bft)
09.11.2014 01:08 7,4 C 6,1 C 93 % 1008,4 hPa 0,0 l/m 0 min 0 min 0 W/m 16,7 km/h (3 Bft)
09.11.2014 01:10 7,4 C 5,6 C 93 % 1008,4 hPa 0,0 l/m 0 min 0 min 0 W/m 12,6 km/h (3 Bft)
09.11.2014 01:12 7,4 C 5,6 C 93 % 1008,4 hPa 0,0 l/m 0 min 0 min 0 W/m 12,6 km/h (3 Bft)
09.11.2014 01:14 7,3 C 5,6 C 94 % 1008,4 hPa 0,0 l/m 0 min 0 min 0 W/m 12,6 km/h (3 Bft)
09.11.2014 01:16 7,3 C 5,6 C 94 % 1008,3 hPa 0,0 l/m 0 min 0 min 0 W/m 10,5 km/h (2 Bft)
09.11.2014 01:18 7,3 C 5,6 C 94 % 1008,3 hPa 0,0 l/m 0 min 0 min 0 W/m 12,6 km/h (3 Bft)
09.11.2014 01:20 7,3 C 5,6 C 94 % 1008,3 hPa 0,0 l/m 0 min 0 min 0 W/m 12,6 km/h (3 Bft)
09.11.2014 01:22 7,3 C 5,6 C 94 % 1008,3 hPa 0,0 l/m 0 min 0 min 0 W/m 10,5 km/h (2 Bft)
09.11.2014 01:24 7,3 C 5,6 C 94 % 1008,3 hPa 0,0 l/m 0 min 0 min 0 W/m 10,5 km/h (2 Bft)
09.11.2014 01:26 7,3 C 5,6 C 94 % 1008,4 hPa 0,0 l/m 0 min 0 min 0 W/m 10,5 km/h (2 Bft)
09.11.2014 01:28 7,3 C 5,6 C 94 % 1008,3 hPa 0,0 l/m 0 min 0 min 0 W/m 12,6 km/h (3 Bft)
09.11.2014 01:30 7,2 C 5,6 C 94 % 1008,2 hPa 0,0 l/m 0 min 0 min 0 W/m 10,5 km/h (2 Bft)
09.11.2014 01:32 7,2 C 5,6 C 94 % 1008,2 hPa 0,0 l/m 0 min 0 min 0 W/m 16,7 km/h (3 Bft)
09.11.2014 01:34 7,2 C 5,6 C 94 % 1008,2 hPa 0,0 l/m 0 min 0 min 0 W/m 14,6 km/h (3 Bft)
09.11.2014 01:36 7,2 C 5,6 C 94 % 1008,2 hPa 0,0 l/m 0 min 0 min 0 W/m 14,6 km/h (3 Bft)
09.11.2014 01:38 7,2 C 5,6 C 94 % 1008,1 hPa 0,0 l/m 0 min 0 min 0 W/m 14,6 km/h (3 Bft)
09.11.2014 01:40 7,2 C 5,6 C 94 % 1008,1 hPa 0,0 l/m 0 min 0 min 0 W/m 16,7 km/h (3 Bft)
09.11.2014 01:42 7,2 C 5,6 C 94 % 1008,1 hPa 0,0 l/m 0 min 0 min 0 W/m 14,6 km/h (3 Bft)
09.11.2014 01:44 7,2 C 5,6 C 94 % 1008,1 hPa 0,0 l/m 0 min 0 min 0 W/m 14,6 km/h (3 Bft)
09.11.2014 01:46 7,2 C 5,6 C 94 % 1008,1 hPa 0,0 l/m 0 min 0 min 0 W/m 12,6 km/h (3 Bft)
09.11.2014 01:48 7,2 C 5,6 C 94 % 1008,1 hPa 0,0 l/m 0 min 0 min 0 W/m 14,6 km/h (3 Bft)
09.11.2014 01:50 7,2 C 5,6 C 94 % 1008,1 hPa 0,0 l/m 0 min 0 min 0 W/m 12,6 km/h (3 Bft)
09.11.2014 01:52 7,2 C 5,6 C 94 % 1008,0 hPa 0,0 l/m 0 min 0 min 0 W/m 14,6 km/h (3 Bft)
09.11.2014 01:54 7,2 C 6,1 C 94 % 1008,0 hPa 0,0 l/m 0 min 0 min 0 W/m 12,6 km/h (3 Bft)
09.11.2014 01:56 7,2 C 5,6 C 94 % 1008,0 hPa 0,0 l/m 0 min 0 min 0 W/m 14,6 km/h (3 Bft)
09.11.2014 01:58 7,2 C 6,1 C 94 % 1008,0 hPa 0,0 l/m 0 min 0 min 0 W/m 12,6 km/h (3 Bft)
09.11.2014 02:00 7,2 C 6,1 C 94 % 1008,0 hPa 0,0 l/m 0 min 0 min 0 W/m 16,7 km/h (3 Bft)
09.11.2014 02:02 7,2 C 6,1 C 94 % 1008,1 hPa 0,0 l/m 0 min 0 min 0 W/m 14,6 km/h (3 Bft)
09.11.2014 02:04 7,2 C 6,1 C 94 % 1008,0 hPa 0,0 l/m 0 min 0 min 0 W/m 14,6 km/h (3 Bft)
09.11.2014 02:06 7,2 C 6,1 C 94 % 1008,0 hPa 0,0 l/m 0 min 0 min 0 W/m 14,6 km/h (3 Bft)
09.11.2014 02:08 7,2 C 6,1 C 94 % 1008,1 hPa 0,0 l/m 0 min 0 min 0 W/m 14,6 km/h (3 Bft)
09.11.2014 02:10 7,2 C 6,1 C 94 % 1008,0 hPa 0,0 l/m 0 min 0 min 0 W/m 14,6 km/h (3 Bft)
09.11.2014 02:12 7,2 C 6,1 C 94 % 1008,0 hPa 0,0 l/m 0 min 0 min 0 W/m 14,6 km/h (3 Bft)
09.11.2014 02:14 7,2 C 6,1 C 94 % 1008,0 hPa 0,0 l/m 0 min 0 min 0 W/m 14,6 km/h (3 Bft)
09.11.2014 02:16 7,2 C 6,1 C 94 % 1008,0 hPa 0,0 l/m 0 min 0 min 0 W/m 10,5 km/h (2 Bft)
09.11.2014 02:18 7,2 C 6,1 C 94 % 1007,9 hPa 0,0 l/m 0 min 0 min 0 W/m 14,6 km/h (3 Bft)
09.11.2014 02:20 7,2 C 6,1 C 94 % 1008,0 hPa 0,0 l/m 0 min 0 min 0 W/m 16,7 km/h (3 Bft)
09.11.2014 02:22 7,2 C 5,6 C 94 % 1008,0 hPa 0,0 l/m 0 min 0 min 0 W/m 18,8 km/h (3 Bft)
09.11.2014 02:24 7,2 C 5,6 C 94 % 1007,9 hPa 0,0 l/m 0 min 0 min 0 W/m 16,7 km/h (3 Bft)
09.11.2014 02:26 7,2 C 5,6 C 94 % 1007,8 hPa 0,0 l/m 0 min 0 min 0 W/m 18,8 km/h (3 Bft)
09.11.2014 02:28 7,2 C 6,1 C 94 % 1007,9 hPa 0,0 l/m 0 min 0 min 0 W/m 16,7 km/h (3 Bft)
09.11.2014 02:30 7,2 C 5,6 C 94 % 1007,9 hPa 0,0 l/m 0 min 0 min 0 W/m 12,6 km/h (3 Bft)
09.11.2014 02:32 7,2 C 5,6 C 94 % 1007,9 hPa 0,0 l/m 0 min 0 min 0 W/m 12,6 km/h (3 Bft)
09.11.2014 02:34 7,2 C 5,6 C 94 % 1007,9 hPa 0,0 l/m 0 min 0 min 0 W/m 14,6 km/h (3 Bft)
09.11.2014 02:36 7,2 C 5,6 C 94 % 1007,9 hPa 0,0 l/m 0 min 0 min 0 W/m 12,6 km/h (3 Bft)
09.11.2014 02:38 7,2 C 5,6 C 94 % 1007,9 hPa 0,0 l/m 0 min 0 min 0 W/m 16,7 km/h (3 Bft)
09.11.2014 02:40 7,2 C 5,6 C 94 % 1007,9 hPa 0,0 l/m 0 min 0 min 0 W/m 16,7 km/h (3 Bft)
09.11.2014 02:42 7,2 C 5,6 C 94 % 1007,9 hPa 0,0 l/m 0 min 0 min 0 W/m 16,7 km/h (3 Bft)
09.11.2014 02:44 7,2 C 5,6 C 94 % 1007,9 hPa 0,0 l/m 0 min 0 min 0 W/m 12,6 km/h (3 Bft)
09.11.2014 02:46 7,2 C 5,6 C 94 % 1007,9 hPa 0,0 l/m 0 min 0 min 0 W/m 14,6 km/h (3 Bft)
09.11.2014 02:48 7,1 C 5,6 C 94 % 1007,8 hPa 0,0 l/m 0 min 0 min 0 W/m 12,6 km/h (3 Bft)
09.11.2014 02:50 7,1 C 5,6 C 94 % 1007,9 hPa 0,0 l/m 0 min 0 min 0 W/m 16,7 km/h (3 Bft)
09.11.2014 02:52 7,1 C 5,6 C 94 % 1007,8 hPa 0,0 l/m 0 min 0 min 0 W/m 10,5 km/h (2 Bft)
09.11.2014 02:54 7,1 C 5,6 C 94 % 1007,8 hPa 0,0 l/m 0 min 0 min 0 W/m 12,6 km/h (3 Bft)
09.11.2014 02:56 7,1 C 5,6 C 94 % 1007,7 hPa 0,0 l/m 0 min 0 min 0 W/m 12,6 km/h (3 Bft)
09.11.2014 02:58 7,1 C 5,6 C 94 % 1007,7 hPa 0,0 l/m 0 min 0 min 0 W/m 18,8 km/h (3 Bft)
09.11.2014 03:00 7,1 C 5,6 C 94 % 1007,7 hPa 0,0 l/m 0 min 0 min 0 W/m 18,8 km/h (3 Bft)
09.11.2014 03:02 7,1 C 5,6 C 94 % 1007,7 hPa 0,0 l/m 0 min 0 min 0 W/m 18,8 km/h (3 Bft)
09.11.2014 03:04 7,1 C 5,6 C 94 % 1007,6 hPa 0,0 l/m 0 min 0 min 0 W/m 16,7 km/h (3 Bft)
09.11.2014 03:06 7,1 C 5,6 C 94 % 1007,6 hPa 0,0 l/m 0 min 0 min 0 W/m 14,6 km/h (3 Bft)
09.11.2014 03:08 7,0 C 5,6 C 94 % 1007,6 hPa 0,0 l/m 0 min 0 min 0 W/m 18,8 km/h (3 Bft)
09.11.2014 03:10 7,0 C 5,6 C 94 % 1007,6 hPa 0,0 l/m 0 min 0 min 0 W/m 18,8 km/h (3 Bft)
09.11.2014 03:12 7,0 C 5,6 C 94 % 1007,6 hPa 0,0 l/m 0 min 0 min 0 W/m 12,6 km/h (3 Bft)
09.11.2014 03:14 7,0 C 5,6 C 94 % 1007,6 hPa 0,0 l/m 0 min 0 min 0 W/m 12,6 km/h (3 Bft)
09.11.2014 03:16 7,0 C 5,6 C 94 % 1007,6 hPa 0,0 l/m 0 min 0 min 0 W/m 12,6 km/h (3 Bft)
09.11.2014 03:18 7,0 C 5,6 C 94 % 1007,6 hPa 0,0 l/m 0 min 0 min 0 W/m 14,6 km/h (3 Bft)
09.11.2014 03:20 7,0 C 5,6 C 94 % 1007,5 hPa 0,0 l/m 0 min 0 min 0 W/m 14,6 km/h (3 Bft)
09.11.2014 03:22 6,9 C 5,6 C 94 % 1007,5 hPa 0,0 l/m 0 min 0 min 0 W/m 16,7 km/h (3 Bft)
09.11.2014 03:24 6,9 C 5,6 C 94 % 1007,5 hPa 0,0 l/m 0 min 0 min 0 W/m 12,6 km/h (3 Bft)
09.11.2014 03:26 6,9 C 5,6 C 94 % 1007,5 hPa 0,0 l/m 0 min 0 min 0 W/m 14,6 km/h (3 Bft)
09.11.2014 03:28 6,9 C 5,6 C 94 % 1007,5 hPa 0,0 l/m 0 min 0 min 0 W/m 12,6 km/h (3 Bft)
09.11.2014 03:30 6,9 C 5,6 C 94 % 1007,5 hPa 0,0 l/m 0 min 0 min 0 W/m 16,7 km/h (3 Bft)
09.11.2014 03:32 6,9 C 5,6 C 94 % 1007,4 hPa 0,0 l/m 0 min 0 min 0 W/m 18,8 km/h (3 Bft)
09.11.2014 03:34 6,9 C 5,6 C 94 % 1007,4 hPa 0,0 l/m 0 min 0 min 0 W/m 12,6 km/h (3 Bft)
09.11.2014 03:36 6,9 C 5,6 C 94 % 1007,5 hPa 0,0 l/m 0 min 0 min 0 W/m 14,6 km/h (3 Bft)
09.11.2014 03:38 6,9 C 5,6 C 94 % 1007,5 hPa 0,0 l/m 0 min 0 min 0 W/m 18,8 km/h (3 Bft)
09.11.2014 03:40 6,9 C 5,6 C 94 % 1007,4 hPa 0,0 l/m 0 min 0 min 0 W/m 14,6 km/h (3 Bft)
09.11.2014 03:42 6,9 C 5,6 C 94 % 1007,5 hPa 0,0 l/m 0 min 0 min 0 W/m 16,7 km/h (3 Bft)
09.11.2014 03:44 6,9 C 5,6 C 94 % 1007,5 hPa 0,0 l/m 0 min 0 min 0 W/m 12,6 km/h (3 Bft)
09.11.2014 03:46 6,9 C 5,6 C 94 % 1007,5 hPa 0,0 l/m 0 min 0 min 0 W/m 10,5 km/h (2 Bft)
09.11.2014 03:48 6,9 C 5,6 C 94 % 1007,6 hPa 0,0 l/m 0 min 0 min 0 W/m 12,6 km/h (3 Bft)
09.11.2014 03:50 6,9 C 5,6 C 94 % 1007,6 hPa 0,0 l/m 0 min 0 min 0 W/m 10,5 km/h (2 Bft)
09.11.2014 03:52 6,8 C 5,0 C 94 % 1007,7 hPa 0,0 l/m 0 min 0 min 0 W/m 10,5 km/h (2 Bft)
09.11.2014 03:54 6,8 C 5,0 C 94 % 1007,6 hPa 0,0 l/m 0 min 0 min 0 W/m 12,6 km/h (3 Bft)
09.11.2014 03:56 6,8 C 5,0 C 94 % 1007,6 hPa 0,0 l/m 0 min 0 min 0 W/m 14,6 km/h (3 Bft)
09.11.2014 03:58 6,8 C 5,0 C 94 % 1007,6 hPa 0,0 l/m 0 min 0 min 0 W/m 12,6 km/h (3 Bft)
09.11.2014 04:00 6,8 C 5,0 C 93 % 1007,6 hPa 0,0 l/m 0 min 0 min 0 W/m 16,7 km/h (3 Bft)
09.11.2014 04:02 6,8 C 5,0 C 93 % 1007,7 hPa 0,0 l/m 0 min 0 min 0 W/m 16,7 km/h (3 Bft)
09.11.2014 04:04 6,7 C 5,0 C 93 % 1007,6 hPa 0,0 l/m 0 min 0 min 0 W/m 16,7 km/h (3 Bft)
09.11.2014 04:06 6,7 C 5,0 C 93 % 1007,7 hPa 0,0 l/m 0 min 0 min 0 W/m 14,6 km/h (3 Bft)
09.11.2014 04:08 6,7 C 5,0 C 93 % 1007,7 hPa 0,0 l/m 0 min 0 min 0 W/m 14,6 km/h (3 Bft)
09.11.2014 04:10 6,7 C 5,0 C 93 % 1007,7 hPa 0,0 l/m 0 min 0 min 0 W/m 20,9 km/h (4 Bft)
09.11.2014 04:12 6,7 C 5,6 C 93 % 1007,7 hPa 0,0 l/m 0 min 0 min 0 W/m 14,6 km/h (3 Bft)
09.11.2014 04:14 6,7 C 5,6 C 93 % 1007,7 hPa 0,0 l/m 0 min 0 min 0 W/m 16,7 km/h (3 Bft)
09.11.2014 04:16 6,7 C 5,6 C 93 % 1007,7 hPa 0,0 l/m 0 min 0 min 0 W/m 12,6 km/h (3 Bft)
09.11.2014 04:18 6,7 C 5,6 C 93 % 1007,6 hPa 0,0 l/m 0 min 0 min 0 W/m 14,6 km/h (3 Bft)
09.11.2014 04:20 6,7 C 5,6 C 93 % 1007,6 hPa 0,0 l/m 0 min 0 min 0 W/m 12,6 km/h (3 Bft)
09.11.2014 04:22 6,7 C 5,6 C 93 % 1007,6 hPa 0,0 l/m 0 min 0 min 0 W/m 12,6 km/h (3 Bft)
09.11.2014 04:24 6,7 C 5,6 C 94 % 1007,6 hPa 0,0 l/m 0 min 0 min 0 W/m 12,6 km/h (3 Bft)
09.11.2014 04:26 6,7 C 5,6 C 94 % 1007,6 hPa 0,0 l/m 0 min 0 min 0 W/m 20,9 km/h (4 Bft)
09.11.2014 04:28 6,7 C 5,6 C 94 % 1007,7 hPa 0,0 l/m 0 min 0 min 0 W/m 12,6 km/h (3 Bft)
09.11.2014 04:30 6,7 C 5,6 C 94 % 1007,7 hPa 0,0 l/m 0 min 0 min 0 W/m 12,6 km/h (3 Bft)
09.11.2014 04:32 6,7 C 5,6 C 94 % 1007,6 hPa 0,0 l/m 0 min 0 min 0 W/m 16,7 km/h (3 Bft)
09.11.2014 04:34 6,7 C 5,6 C 94 % 1007,6 hPa 0,0 l/m 0 min 0 min 0 W/m 14,6 km/h (3 Bft)
09.11.2014 04:36 6,7 C 5,6 C 94 % 1007,6 hPa 0,0 l/m 0 min 0 min 0 W/m 16,7 km/h (3 Bft)
09.11.2014 04:38 6,8 C 5,6 C 94 % 1007,6 hPa 0,0 l/m 0 min 0 min 0 W/m 18,8 km/h (3 Bft)
09.11.2014 04:40 6,8 C 5,6 C 94 % 1007,7 hPa 0,0 l/m 0 min 0 min 0 W/m 16,7 km/h (3 Bft)
09.11.2014 04:42 6,8 C 5,6 C 94 % 1007,6 hPa 0,0 l/m 0 min 0 min 0 W/m 18,8 km/h (3 Bft)
09.11.2014 04:44 6,8 C 5,6 C 94 % 1007,6 hPa 0,0 l/m 0 min 0 min 0 W/m 20,9 km/h (4 Bft)
09.11.2014 04:46 6,8 C 5,6 C 94 % 1007,6 hPa 0,0 l/m 0 min 0 min 0 W/m 16,7 km/h (3 Bft)
09.11.2014 04:48 6,8 C 5,6 C 94 % 1007,6 hPa 0,0 l/m 0 min 0 min 0 W/m 16,7 km/h (3 Bft)
09.11.2014 04:50 6,8 C 5,6 C 94 % 1007,6 hPa 0,0 l/m 0 min 0 min 0 W/m 14,6 km/h (3 Bft)
09.11.2014 04:52 6,8 C 5,6 C 94 % 1007,6 hPa 0,0 l/m 0 min 0 min 0 W/m 20,9 km/h (4 Bft)
09.11.2014 04:54 6,8 C 5,6 C 94 % 1007,6 hPa 0,0 l/m 0 min 0 min 0 W/m 14,6 km/h (3 Bft)
09.11.2014 04:56 6,8 C 5,6 C 94 % 1007,6 hPa 0,0 l/m 0 min 0 min 0 W/m 18,8 km/h (3 Bft)
09.11.2014 04:58 6,8 C 5,6 C 94 % 1007,6 hPa 0,0 l/m 0 min 0 min 0 W/m 14,6 km/h (3 Bft)
09.11.2014 05:00 6,8 C 5,6 C 94 % 1007,6 hPa 0,0 l/m 0 min 0 min 0 W/m 14,6 km/h (3 Bft)
09.11.2014 05:02 6,8 C 5,6 C 94 % 1007,5 hPa 0,0 l/m 0 min 0 min 0 W/m 16,7 km/h (3 Bft)
09.11.2014 05:04 6,8 C 5,6 C 94 % 1007,5 hPa 0,0 l/m 0 min 0 min 0 W/m 16,7 km/h (3 Bft)
09.11.2014 05:06 6,8 C 5,6 C 94 % 1007,5 hPa 0,0 l/m 0 min 0 min 0 W/m 18,8 km/h (3 Bft)
09.11.2014 05:08 6,8 C 5,6 C 93 % 1007,4 hPa 0,0 l/m 0 min 0 min 0 W/m 16,7 km/h (3 Bft)
09.11.2014 05:10 6,8 C 5,6 C 94 % 1007,4 hPa 0,0 l/m 0 min 0 min 0 W/m 14,6 km/h (3 Bft)
09.11.2014 05:12 6,8 C 5,6 C 94 % 1007,4 hPa 0,0 l/m 0 min 0 min 0 W/m 14,6 km/h (3 Bft)
09.11.2014 05:14 6,8 C 5,6 C 94 % 1007,3 hPa 0,0 l/m 0 min 0 min 0 W/m 16,7 km/h (3 Bft)
09.11.2014 05:16 6,8 C 5,6 C 94 % 1007,3 hPa 0,0 l/m 0 min 0 min 0 W/m 14,6 km/h (3 Bft)
09.11.2014 05:18 6,8 C 5,6 C 94 % 1007,3 hPa 0,0 l/m 0 min 0 min 0 W/m 16,7 km/h (3 Bft)
09.11.2014 05:20 6,8 C 5,6 C 94 % 1007,3 hPa 0,0 l/m 0 min 0 min 0 W/m 20,9 km/h (4 Bft)
09.11.2014 05:22 6,8 C 5,6 C 94 % 1007,3 hPa 0,0 l/m 0 min 0 min 0 W/m 16,7 km/h (3 Bft)
09.11.2014 05:24 6,8 C 5,6 C 94 % 1007,2 hPa 0,0 l/m 0 min 0 min 0 W/m 20,9 km/h (4 Bft)
09.11.2014 05:26 6,8 C 5,6 C 94 % 1007,2 hPa 0,0 l/m 0 min 0 min 0 W/m 18,8 km/h (3 Bft)
09.11.2014 05:28 6,8 C 5,6 C 94 % 1007,2 hPa 0,0 l/m 0 min 0 min 0 W/m 16,7 km/h (3 Bft)
09.11.2014 05:30 6,8 C 5,6 C 94 % 1007,3 hPa 0,0 l/m 0 min 0 min 0 W/m 16,7 km/h (3 Bft)
09.11.2014 05:32 6,8 C 5,6 C 94 % 1007,3 hPa 0,0 l/m 0 min 0 min 0 W/m 20,9 km/h (4 Bft)
09.11.2014 05:34 6,8 C 5,6 C 94 % 1007,3 hPa 0,0 l/m 0 min 0 min 0 W/m 16,7 km/h (3 Bft)
09.11.2014 05:36 6,8 C 5,6 C 94 % 1007,3 hPa 0,0 l/m 0 min 0 min 0 W/m 18,8 km/h (3 Bft)
09.11.2014 05:38 6,8 C 5,6 C 94 % 1007,3 hPa 0,0 l/m 0 min 0 min 0 W/m 16,7 km/h (3 Bft)
09.11.2014 05:40 6,8 C 5,6 C 94 % 1007,3 hPa 0,0 l/m 0 min 0 min 0 W/m 16,7 km/h (3 Bft)
09.11.2014 05:42 6,8 C 5,6 C 94 % 1007,3 hPa 0,0 l/m 0 min 0 min 0 W/m 16,7 km/h (3 Bft)
09.11.2014 05:44 6,8 C 5,6 C 94 % 1007,2 hPa 0,0 l/m 0 min 0 min 0 W/m 18,8 km/h (3 Bft)
09.11.2014 05:46 6,8 C 5,6 C 94 % 1007,2 hPa 0,0 l/m 0 min 0 min 0 W/m 16,7 km/h (3 Bft)
09.11.2014 05:48 6,8 C 5,6 C 94 % 1007,2 hPa 0,0 l/m 0 min 0 min 0 W/m 18,8 km/h (3 Bft)
09.11.2014 05:50 6,8 C 5,6 C 94 % 1007,2 hPa 0,0 l/m 0 min 0 min 0 W/m 14,6 km/h (3 Bft)
09.11.2014 05:52 6,8 C 5,0 C 94 % 1007,2 hPa 0,0 l/m 0 min 0 min 0 W/m 18,8 km/h (3 Bft)
09.11.2014 05:54 6,8 C 5,0 C 94 % 1007,1 hPa 0,0 l/m 0 min 0 min 0 W/m 16,7 km/h (3 Bft)
09.11.2014 05:56 6,8 C 5,0 C 93 % 1007,0 hPa 0,0 l/m 0 min 0 min 0 W/m 16,7 km/h (3 Bft)
09.11.2014 05:58 6,7 C 5,0 C 93 % 1007,0 hPa 0,0 l/m 0 min 0 min 0 W/m 16,7 km/h (3 Bft)
09.11.2014 06:00 6,7 C 5,0 C 93 % 1007,1 hPa 0,0 l/m 0 min 0 min 0 W/m 18,8 km/h (3 Bft)
09.11.2014 06:02 6,7 C 5,6 C 93 % 1007,1 hPa 0,0 l/m 0 min 0 min 0 W/m 18,8 km/h (3 Bft)
09.11.2014 06:05 6,7 C 5,0 C 93 % 1007,1 hPa 0,0 l/m 0 min 0 min 0 W/m 14,6 km/h (3 Bft)
09.11.2014 06:08 6,7 C 5,0 C 93 % 1007,0 hPa 0,0 l/m 0 min 0 min 0 W/m 16,7 km/h (3 Bft)
09.11.2014 06:10 6,7 C 5,0 C 93 % 1007,0 hPa 0,0 l/m 0 min 0 min 0 W/m 16,7 km/h (3 Bft)
09.11.2014 06:12 6,7 C 5,0 C 93 % 1007,0 hPa 0,0 l/m 0 min 0 min 0 W/m 12,6 km/h (3 Bft)
09.11.2014 06:14 6,7 C 5,0 C 93 % 1007,0 hPa 0,0 l/m 0 min 0 min 0 W/m 20,9 km/h (4 Bft)
09.11.2014 06:16 6,7 C 5,0 C 93 % 1007,0 hPa 0,0 l/m 0 min 0 min 0 W/m 16,7 km/h (3 Bft)
09.11.2014 06:18 6,7 C 5,0 C 93 % 1007,0 hPa 0,0 l/m 0 min 0 min 0 W/m 20,9 km/h (4 Bft)
09.11.2014 06:20 6,7 C 5,0 C 93 % 1006,9 hPa 0,0 l/m 0 min 0 min 0 W/m 16,7 km/h (3 Bft)
09.11.2014 06:22 6,7 C 5,0 C 93 % 1006,9 hPa 0,0 l/m 0 min 0 min 0 W/m 18,8 km/h (3 Bft)
09.11.2014 06:24 6,7 C 5,0 C 93 % 1007,1 hPa 0,0 l/m 0 min 0 min 0 W/m 12,6 km/h (3 Bft)
09.11.2014 06:26 6,7 C 5,0 C 93 % 1007,1 hPa 0,0 l/m 0 min 0 min 0 W/m 14,6 km/h (3 Bft)
09.11.2014 06:28 6,7 C 5,0 C 93 % 1007,0 hPa 0,0 l/m 0 min 0 min 0 W/m 14,6 km/h (3 Bft)
09.11.2014 06:30 6,7 C 5,0 C 93 % 1007,1 hPa 0,0 l/m 0 min 0 min 0 W/m 16,7 km/h (3 Bft)
09.11.2014 06:32 6,7 C 5,0 C 94 % 1007,1 hPa 0,0 l/m 0 min 0 min 0 W/m 12,6 km/h (3 Bft)
09.11.2014 06:34 6,7 C 5,0 C 94 % 1007,1 hPa 0,0 l/m 0 min 0 min 0 W/m 12,6 km/h (3 Bft)
09.11.2014 06:36 6,7 C 5,0 C 94 % 1007,1 hPa 0,0 l/m 0 min 0 min 0 W/m 12,6 km/h (3 Bft)
09.11.2014 06:38 6,7 C 5,0 C 94 % 1007,1 hPa 0,0 l/m 0 min 0 min 0 W/m 16,7 km/h (3 Bft)
09.11.2014 06:40 6,7 C 5,0 C 94 % 1007,2 hPa 0,0 l/m 0 min 0 min 0 W/m 14,6 km/h (3 Bft)
09.11.2014 06:42 6,7 C 5,0 C 94 % 1007,2 hPa 0,0 l/m 0 min 0 min 0 W/m 12,6 km/h (3 Bft)
09.11.2014 06:44 6,7 C 5,6 C 94 % 1007,2 hPa 0,0 l/m 0 min 0 min 0 W/m 20,9 km/h (4 Bft)
09.11.2014 06:46 6,7 C 5,0 C 94 % 1007,2 hPa 0,0 l/m 0 min 0 min 0 W/m 10,5 km/h (2 Bft)
09.11.2014 06:48 6,7 C 5,0 C 94 % 1007,2 hPa 0,0 l/m 0 min 0 min 0 W/m 16,7 km/h (3 Bft)
09.11.2014 06:50 6,7 C 5,0 C 94 % 1007,2 hPa 0,0 l/m 0 min 0 min 0 W/m 12,6 km/h (3 Bft)
09.11.2014 06:52 6,7 C 5,0 C 94 % 1007,2 hPa 0,0 l/m 0 min 0 min 0 W/m 16,7 km/h (3 Bft)
09.11.2014 06:54 6,7 C 5,0 C 94 % 1007,2 hPa 0,0 l/m 0 min 0 min 0 W/m 14,6 km/h (3 Bft)
09.11.2014 06:56 6,7 C 5,0 C 94 % 1007,2 hPa 0,0 l/m 0 min 0 min 0 W/m 14,6 km/h (3 Bft)
09.11.2014 06:58 6,7 C 5,0 C 94 % 1007,2 hPa 0,0 l/m 0 min 0 min 0 W/m 16,7 km/h (3 Bft)
09.11.2014 07:00 6,7 C 5,0 C 94 % 1007,3 hPa 0,0 l/m 0 min 0 min 0 W/m 18,8 km/h (3 Bft)
09.11.2014 07:02 6,7 C 5,0 C 94 % 1007,2 hPa 0,0 l/m 0 min 0 min 0 W/m 12,6 km/h (3 Bft)
09.11.2014 07:04 6,7 C 5,0 C 94 % 1007,2 hPa 0,0 l/m 0 min 0 min 0 W/m 18,8 km/h (3 Bft)
09.11.2014 07:06 6,7 C 5,0 C 94 % 1007,3 hPa 0,0 l/m 0 min 0 min 0 W/m 16,7 km/h (3 Bft)
09.11.2014 07:08 6,7 C 5,0 C 94 % 1007,3 hPa 0,0 l/m 0 min 0 min 0 W/m 16,7 km/h (3 Bft)
09.11.2014 07:10 6,7 C 5,0 C 94 % 1007,4 hPa 0,0 l/m 0 min 0 min 0 W/m 14,6 km/h (3 Bft)
09.11.2014 07:12 6,7 C 5,0 C 94 % 1007,5 hPa 0,0 l/m 0 min 0 min 0 W/m 14,6 km/h (3 Bft)
09.11.2014 07:14 6,7 C 5,0 C 94 % 1007,4 hPa 0,0 l/m 0 min 0 min 0 W/m 16,7 km/h (3 Bft)
09.11.2014 07:16 6,7 C 5,0 C 94 % 1007,5 hPa 0,0 l/m 0 min 0 min 0 W/m 14,6 km/h (3 Bft)
09.11.2014 07:18 6,7 C 5,0 C 94 % 1007,4 hPa 0,0 l/m 0 min 0 min 0 W/m 8,4 km/h (2 Bft)
09.11.2014 07:20 6,7 C 5,0 C 94 % 1007,5 hPa 0,0 l/m 0 min 0 min 0 W/m 12,6 km/h (3 Bft)
09.11.2014 07:22 6,7 C 5,0 C 94 % 1007,5 hPa 0,0 l/m 0 min 0 min 0 W/m 10,5 km/h (2 Bft)
09.11.2014 07:24 6,7 C 5,0 C 94 % 1007,5 hPa 0,0 l/m 0 min 0 min 0 W/m 10,5 km/h (2 Bft)
09.11.2014 07:26 6,7 C 5,0 C 94 % 1007,5 hPa 0,0 l/m 0 min 0 min 0 W/m 14,6 km/h (3 Bft)
09.11.2014 07:28 6,7 C 5,0 C 94 % 1007,5 hPa 0,0 l/m 0 min 0 min 0 W/m 14,6 km/h (3 Bft)
09.11.2014 07:30 6,7 C 5,0 C 94 % 1007,5 hPa 0,0 l/m 0 min 0 min 0 W/m 10,5 km/h (2 Bft)
09.11.2014 07:32 6,7 C 5,0 C 94 % 1007,5 hPa 0,0 l/m 0 min 0 min 0 W/m 14,6 km/h (3 Bft)
09.11.2014 07:34 6,6 C 5,0 C 94 % 1007,5 hPa 0,0 l/m 0 min 0 min 0 W/m 10,5 km/h (2 Bft)
09.11.2014 07:36 6,6 C 5,0 C 94 % 1007,5 hPa 0,0 l/m 0 min 0 min 0 W/m 10,5 km/h (2 Bft)
09.11.2014 07:38 6,6 C 5,0 C 94 % 1007,5 hPa 0,0 l/m 0 min 0 min 0 W/m 8,4 km/h (2 Bft)
09.11.2014 07:40 6,6 C 5,0 C 94 % 1007,5 hPa 0,0 l/m 0 min 0 min 0 W/m 14,6 km/h (3 Bft)
09.11.2014 07:42 6,6 C 5,0 C 94 % 1007,5 hPa 0,0 l/m 0 min 0 min 5 W/m 10,5 km/h (2 Bft)
09.11.2014 07:44 6,6 C 5,0 C 94 % 1007,5 hPa 0,0 l/m 0 min 0 min 5 W/m 14,6 km/h (3 Bft)
09.11.2014 07:46 6,6 C 5,0 C 94 % 1007,5 hPa 0,0 l/m 0 min 0 min 6 W/m 14,6 km/h (3 Bft)
09.11.2014 07:48 6,6 C 5,0 C 94 % 1007,5 hPa 0,0 l/m 0 min 0 min 7 W/m 14,6 km/h (3 Bft)
09.11.2014 07:50 6,6 C 5,0 C 94 % 1007,5 hPa 0,0 l/m 0 min 0 min 8 W/m 12,6 km/h (3 Bft)
09.11.2014 07:52 6,5 C 5,0 C 94 % 1007,5 hPa 0,0 l/m 0 min 0 min 9 W/m 16,7 km/h (3 Bft)
09.11.2014 07:54 6,5 C 5,0 C 94 % 1007,5 hPa 0,0 l/m 0 min 0 min 9 W/m 20,9 km/h (4 Bft)
09.11.2014 07:56 6,5 C 5,0 C 94 % 1007,5 hPa 0,0 l/m 0 min 0 min 11 W/m 12,6 km/h (3 Bft)
09.11.2014 07:58 6,5 C 5,0 C 94 % 1007,5 hPa 0,0 l/m 0 min 0 min 12 W/m 16,7 km/h (3 Bft)
09.11.2014 08:00 6,5 C 5,0 C 94 % 1007,5 hPa 0,0 l/m 0 min 0 min 14 W/m 14,6 km/h (3 Bft)
09.11.2014 08:02 6,5 C 5,0 C 94 % 1007,6 hPa 0,0 l/m 0 min 0 min 17 W/m 16,7 km/h (3 Bft)
09.11.2014 08:04 6,5 C 5,0 C 94 % 1007,6 hPa 0,0 l/m 0 min 0 min 19 W/m 12,6 km/h (3 Bft)
09.11.2014 08:06 6,5 C 5,0 C 94 % 1007,6 hPa 0,0 l/m 0 min 0 min 21 W/m 12,6 km/h (3 Bft)
09.11.2014 08:08 6,5 C 5,0 C 94 % 1007,7 hPa 0,0 l/m 0 min 0 min 25 W/m 14,6 km/h (3 Bft)
09.11.2014 08:10 6,5 C 5,0 C 94 % 1007,6 hPa 0,0 l/m 2 min 0 min 29 W/m 16,7 km/h (3 Bft)
09.11.2014 08:12 6,5 C 5,0 C 94 % 1007,6 hPa 0,0 l/m 2 min 0 min 32 W/m 16,7 km/h (3 Bft)
09.11.2014 08:14 6,5 C 5,6 C 94 % 1007,6 hPa 0,0 l/m 2 min 0 min 35 W/m 16,7 km/h (3 Bft)
09.11.2014 08:16 6,6 C 5,6 C 94 % 1007,7 hPa 0,0 l/m 0 min 0 min 32 W/m 14,6 km/h (3 Bft)
09.11.2014 08:18 6,6 C 5,6 C 94 % 1007,7 hPa 0,0 l/m 0 min 0 min 33 W/m 14,6 km/h (3 Bft)
09.11.2014 08:20 6,6 C 5,0 C 94 % 1007,6 hPa 0,0 l/m 0 min 0 min 34 W/m 14,6 km/h (3 Bft)
09.11.2014 08:22 6,6 C 5,6 C 94 % 1007,6 hPa 0,0 l/m 0 min 0 min 33 W/m 18,8 km/h (3 Bft)
09.11.2014 08:24 6,6 C 5,6 C 94 % 1007,6 hPa 0,0 l/m 0 min 0 min 37 W/m 16,7 km/h (3 Bft)
09.11.2014 08:26 6,6 C 5,6 C 94 % 1007,7 hPa 0,0 l/m 0 min 0 min 39 W/m 18,8 km/h (3 Bft)
09.11.2014 08:28 6,6 C 5,6 C 94 % 1007,6 hPa 0,0 l/m 0 min 0 min 38 W/m 20,9 km/h (4 Bft)
09.11.2014 08:30 6,6 C 5,6 C 94 % 1007,6 hPa 0,0 l/m 0 min 0 min 39 W/m 16,7 km/h (3 Bft)
09.11.2014 08:32 6,6 C 5,6 C 94 % 1007,6 hPa 0,0 l/m 0 min 0 min 37 W/m 20,9 km/h (4 Bft)
09.11.2014 08:34 6,7 C 5,6 C 94 % 1007,6 hPa 0,0 l/m 0 min 0 min 41 W/m 18,8 km/h (3 Bft)
09.11.2014 08:36 6,7 C 5,6 C 95 % 1007,6 hPa 0,0 l/m 0 min 0 min 52 W/m 23,0 km/h (4 Bft)
09.11.2014 08:38 6,7 C 5,6 C 95 % 1007,6 hPa 0,0 l/m 2 min 0 min 59 W/m 31,4 km/h (5 Bft)
09.11.2014 08:40 6,7 C 5,6 C 95 % 1007,6 hPa 0,0 l/m 2 min 0 min 68 W/m 18,8 km/h (3 Bft)
09.11.2014 08:42 6,8 C 5,6 C 95 % 1007,6 hPa 0,0 l/m 2 min 0 min 75 W/m 23,0 km/h (4 Bft)
09.11.2014 08:44 6,8 C 6,1 C 95 % 1007,6 hPa 0,0 l/m 2 min 0 min 78 W/m 20,9 km/h (4 Bft)
09.11.2014 08:46 6,8 C 6,1 C 95 % 1007,6 hPa 0,0 l/m 2 min 0 min 89 W/m 18,8 km/h (3 Bft)
09.11.2014 08:48 6,9 C 6,1 C 95 % 1007,7 hPa 0,0 l/m 2 min 0 min 96 W/m 20,9 km/h (4 Bft)
09.11.2014 08:50 6,9 C 6,1 C 95 % 1007,7 hPa 0,0 l/m 2 min 0 min 101 W/m 23,0 km/h (4 Bft)
09.11.2014 08:52 6,9 C 6,1 C 95 % 1007,7 hPa 0,0 l/m 2 min 0 min 105 W/m 20,9 km/h (4 Bft)
09.11.2014 08:54 7,0 C 6,1 C 95 % 1007,6 hPa 0,0 l/m 2 min 0 min 99 W/m 23,0 km/h (4 Bft)
09.11.2014 08:56 7,1 C 6,1 C 95 % 1007,5 hPa 0,0 l/m 2 min 0 min 92 W/m 18,8 km/h (3 Bft)
09.11.2014 08:58 7,1 C 6,1 C 95 % 1007,5 hPa 0,0 l/m 2 min 0 min 98 W/m 16,7 km/h (3 Bft)
09.11.2014 09:00 7,1 C 6,1 C 95 % 1007,5 hPa 0,0 l/m 2 min 0 min 105 W/m 14,6 km/h (3 Bft)
09.11.2014 09:02 7,1 C 6,1 C 95 % 1007,5 hPa 0,0 l/m 2 min 0 min 125 W/m 16,7 km/h (3 Bft)
09.11.2014 09:04 7,2 C 6,7 C 95 % 1007,5 hPa 0,0 l/m 2 min 0 min 137 W/m 14,6 km/h (3 Bft)
09.11.2014 09:06 7,2 C 6,7 C 95 % 1007,6 hPa 0,0 l/m 2 min 0 min 153 W/m 20,9 km/h (4 Bft)
09.11.2014 09:08 7,3 C 6,7 C 94 % 1007,6 hPa 0,0 l/m 2 min 0 min 158 W/m 16,7 km/h (3 Bft)
09.11.2014 09:10 7,3 C 6,7 C 94 % 1007,7 hPa 0,0 l/m 2 min 0 min 159 W/m 14,6 km/h (3 Bft)
09.11.2014 09:12 7,3 C 6,7 C 94 % 1007,7 hPa 0,0 l/m 2 min 0 min 148 W/m 18,8 km/h (3 Bft)
09.11.2014 09:14 7,4 C 6,7 C 94 % 1007,6 hPa 0,0 l/m 2 min 0 min 142 W/m 16,7 km/h (3 Bft)
09.11.2014 09:16 7,4 C 6,7 C 95 % 1007,7 hPa 0,0 l/m 2 min 0 min 133 W/m 16,7 km/h (3 Bft)
09.11.2014 09:18 7,4 C 6,7 C 95 % 1007,7 hPa 0,0 l/m 2 min 0 min 128 W/m 18,8 km/h (3 Bft)
09.11.2014 09:20 7,5 C 6,7 C 94 % 1007,7 hPa 0,0 l/m 2 min 0 min 133 W/m 23,0 km/h (4 Bft)
09.11.2014 09:22 7,6 C 6,7 C 94 % 1007,6 hPa 0,0 l/m 2 min 0 min 139 W/m 20,9 km/h (4 Bft)
09.11.2014 09:24 7,6 C 6,7 C 94 % 1007,7 hPa 0,0 l/m 2 min 0 min 126 W/m 14,6 km/h (3 Bft)
09.11.2014 09:26 7,6 C 6,7 C 94 % 1007,6 hPa 0,0 l/m 2 min 0 min 110 W/m 14,6 km/h (3 Bft)
09.11.2014 09:28 7,7 C 6,7 C 94 % 1007,6 hPa 0,0 l/m 2 min 0 min 124 W/m 14,6 km/h (3 Bft)
09.11.2014 09:30 7,7 C 6,7 C 94 % 1007,7 hPa 0,0 l/m 2 min 0 min 121 W/m 23,0 km/h (4 Bft)
09.11.2014 09:32 7,7 C 7,2 C 94 % 1007,7 hPa 0,0 l/m 2 min 0 min 123 W/m 18,8 km/h (3 Bft)
09.11.2014 09:34 7,8 C 7,2 C 94 % 1007,7 hPa 0,0 l/m 2 min 0 min 120 W/m 18,8 km/h (3 Bft)
09.11.2014 09:36 7,8 C 7,2 C 94 % 1007,7 hPa 0,0 l/m 2 min 0 min 115 W/m 20,9 km/h (4 Bft)
09.11.2014 09:38 7,8 C 7,2 C 94 % 1007,7 hPa 0,0 l/m 0 min 0 min 106 W/m 20,9 km/h (4 Bft)
09.11.2014 09:40 7,8 C 7,2 C 94 % 1007,7 hPa 0,0 l/m 0 min 0 min 111 W/m 23,0 km/h (4 Bft)
09.11.2014 09:42 7,9 C 7,2 C 94 % 1007,7 hPa 0,0 l/m 0 min 0 min 110 W/m 23,0 km/h (4 Bft)
09.11.2014 09:44 7,9 C 7,2 C 94 % 1007,7 hPa 0,0 l/m 0 min 0 min 104 W/m 16,7 km/h (3 Bft)
09.11.2014 09:46 7,9 C 7,2 C 93 % 1007,7 hPa 0,0 l/m 0 min 0 min 98 W/m 23,0 km/h (4 Bft)
09.11.2014 09:48 7,9 C 7,2 C 93 % 1007,7 hPa 0,0 l/m 0 min 0 min 95 W/m 18,8 km/h (3 Bft)
09.11.2014 09:50 8,0 C 7,2 C 93 % 1007,7 hPa 0,0 l/m 0 min 0 min 96 W/m 31,4 km/h (5 Bft)
09.11.2014 09:52 8,0 C 7,2 C 93 % 1007,7 hPa 0,0 l/m 0 min 0 min 102 W/m 18,8 km/h (3 Bft)
09.11.2014 09:54 8,0 C 7,2 C 93 % 1007,7 hPa 0,0 l/m 0 min 0 min 112 W/m 25,1 km/h (4 Bft)
09.11.2014 09:56 8,1 C 7,2 C 93 % 1007,7 hPa 0,0 l/m 0 min 0 min 117 W/m 27,2 km/h (4 Bft)
09.11.2014 09:58 8,1 C 7,2 C 93 % 1007,6 hPa 0,0 l/m 0 min 0 min 117 W/m 18,8 km/h (3 Bft)
09.11.2014 10:00 8,1 C 7,2 C 92 % 1007,6 hPa 0,0 l/m 0 min 0 min 120 W/m 16,7 km/h (3 Bft)
09.11.2014 10:02 8,1 C 7,2 C 92 % 1007,6 hPa 0,0 l/m 0 min 0 min 123 W/m 27,2 km/h (4 Bft)
09.11.2014 10:04 8,1 C 7,2 C 92 % 1007,7 hPa 0,0 l/m 0 min 0 min 131 W/m 25,1 km/h (4 Bft)
09.11.2014 10:06 8,1 C 7,2 C 92 % 1007,6 hPa 0,0 l/m 2 min 0 min 152 W/m 18,8 km/h (3 Bft)
09.11.2014 10:08 8,1 C 7,2 C 92 % 1007,7 hPa 0,0 l/m 2 min 0 min 177 W/m 23,0 km/h (4 Bft)
09.11.2014 10:10 8,2 C 7,2 C 92 % 1007,7 hPa 0,0 l/m 2 min 0 min 209 W/m 25,1 km/h (4 Bft)
09.11.2014 10:12 8,2 C 7,8 C 92 % 1007,7 hPa 0,0 l/m 2 min 0 min 244 W/m 20,9 km/h (4 Bft)
09.11.2014 10:14 8,3 C 7,8 C 92 % 1007,7 hPa 0,0 l/m 2 min 0 min 255 W/m 23,0 km/h (4 Bft)
09.11.2014 10:16 8,3 C 7,8 C 92 % 1007,7 hPa 0,0 l/m 2 min 0 min 249 W/m 25,1 km/h (4 Bft)
09.11.2014 10:18 8,4 C 7,8 C 92 % 1007,7 hPa 0,0 l/m 2 min 0 min 266 W/m 27,2 km/h (4 Bft)
09.11.2014 10:20 8,4 C 8,3 C 91 % 1007,7 hPa 0,0 l/m 2 min 0 min 327 W/m 29,3 km/h (5 Bft)
09.11.2014 10:22 8,6 C 8,3 C 91 % 1007,7 hPa 0,0 l/m 2 min 0 min 308 W/m 29,3 km/h (5 Bft)
09.11.2014 10:24 8,6 C 8,3 C 91 % 1007,7 hPa 0,0 l/m 2 min 0 min 319 W/m 27,2 km/h (4 Bft)
09.11.2014 10:26 8,7 C 8,3 C 91 % 1007,8 hPa 0,0 l/m 2 min 0 min 320 W/m 16,7 km/h (3 Bft)
09.11.2014 10:28 8,8 C 8,3 C 91 % 1007,9 hPa 0,0 l/m 2 min 0 min 240 W/m 29,3 km/h (5 Bft)
09.11.2014 10:30 8,9 C 8,3 C 91 % 1007,8 hPa 0,0 l/m 2 min 0 min 214 W/m 23,0 km/h (4 Bft)
09.11.2014 10:32 8,9 C 8,3 C 91 % 1007,9 hPa 0,0 l/m 2 min 0 min 288 W/m 23,0 km/h (4 Bft)
09.11.2014 10:34 9,1 C 8,9 C 90 % 1007,8 hPa 0,0 l/m 2 min 0 min 350 W/m 20,9 km/h (4 Bft)
09.11.2014 10:36 9,1 C 8,9 C 90 % 1007,8 hPa 0,0 l/m 2 min 0 min 392 W/m 16,7 km/h (3 Bft)
09.11.2014 10:38 9,2 C 8,9 C 91 % 1007,7 hPa 0,0 l/m 2 min 0 min 397 W/m 16,7 km/h (3 Bft)
09.11.2014 10:40 9,3 C 9,4 C 90 % 1007,7 hPa 0,0 l/m 2 min 0 min 411 W/m 18,8 km/h (3 Bft)
09.11.2014 10:42 9,4 C 9,4 C 90 % 1007,7 hPa 0,0 l/m 2 min 0 min 415 W/m 27,2 km/h (4 Bft)
09.11.2014 10:44 9,6 C 9,4 C 90 % 1007,7 hPa 0,0 l/m 2 min 0 min 400 W/m 31,4 km/h (5 Bft)
09.11.2014 10:46 9,7 C 9,4 C 89 % 1007,7 hPa 0,0 l/m 2 min 0 min 390 W/m 27,2 km/h (4 Bft)
09.11.2014 10:48 9,8 C 9,4 C 89 % 1007,7 hPa 0,0 l/m 2 min 0 min 402 W/m 31,4 km/h (5 Bft)
09.11.2014 10:50 9,9 C 9,4 C 89 % 1007,7 hPa 0,0 l/m 2 min 0 min 390 W/m 29,3 km/h (5 Bft)
09.11.2014 10:52 10,1 C 9,4 C 88 % 1007,7 hPa 0,0 l/m 2 min 0 min 379 W/m 27,2 km/h (4 Bft)
09.11.2014 10:54 10,2 C 9,4 C 88 % 1007,7 hPa 0,0 l/m 2 min 0 min 367 W/m 23,0 km/h (4 Bft)
09.11.2014 10:56 10,2 C 9,4 C 87 % 1007,7 hPa 0,0 l/m 2 min 0 min 359 W/m 27,2 km/h (4 Bft)
09.11.2014 10:58 10,3 C 9,4 C 87 % 1007,7 hPa 0,0 l/m 2 min 0 min 357 W/m 27,2 km/h (4 Bft)
09.11.2014 11:00 10,4 C 9,4 C 87 % 1007,7 hPa 0,0 l/m 2 min 0 min 350 W/m 14,6 km/h (3 Bft)
09.11.2014 11:02 10,5 C 9,4 C 87 % 1007,7 hPa 0,0 l/m 2 min 0 min 356 W/m 29,3 km/h (5 Bft)
09.11.2014 11:04 10,6 C 9,4 C 86 % 1007,7 hPa 0,0 l/m 2 min 0 min 347 W/m 27,2 km/h (4 Bft)
09.11.2014 11:06 10,7 C 9,4 C 86 % 1007,6 hPa 0,0 l/m 2 min 0 min 339 W/m 35,6 km/h (5 Bft)
09.11.2014 11:08 10,8 C 9,4 C 86 % 1007,7 hPa 0,0 l/m 2 min 0 min 338 W/m 18,8 km/h (3 Bft)
09.11.2014 11:10 10,8 C 9,4 C 85 % 1007,6 hPa 0,0 l/m 2 min 0 min 336 W/m 18,8 km/h (3 Bft)
09.11.2014 11:12 10,9 C 9,4 C 85 % 1007,6 hPa 0,0 l/m 2 min 0 min 345 W/m 20,9 km/h (4 Bft)
09.11.2014 11:14 11,0 C 9,4 C 85 % 1007,7 hPa 0,0 l/m 2 min 0 min 339 W/m 31,4 km/h (5 Bft)
09.11.2014 11:16 11,1 C 9,4 C 85 % 1007,6 hPa 0,0 l/m 2 min 0 min 337 W/m 31,4 km/h (5 Bft)
09.11.2014 11:18 11,1 C 9,4 C 84 % 1007,6 hPa 0,0 l/m 2 min 0 min 328 W/m 20,9 km/h (4 Bft)
09.11.2014 11:20 11,2 C 9,4 C 84 % 1007,6 hPa 0,0 l/m 2 min 0 min 309 W/m 23,0 km/h (4 Bft)
09.11.2014 11:22 11,2 C 9,4 C 84 % 1007,7 hPa 0,0 l/m 2 min 0 min 273 W/m 25,1 km/h (4 Bft)
09.11.2014 11:24 11,2 C 9,4 C 84 % 1007,6 hPa 0,0 l/m 2 min 0 min 200 W/m 27,2 km/h (4 Bft)
09.11.2014 11:26 11,2 C 9,4 C 83 % 1007,5 hPa 0,0 l/m 2 min 0 min 290 W/m 27,2 km/h (4 Bft)
09.11.2014 11:28 11,2 C 9,4 C 83 % 1007,6 hPa 0,0 l/m 2 min 0 min 344 W/m 14,6 km/h (3 Bft)
09.11.2014 11:30 11,2 C 9,4 C 83 % 1007,6 hPa 0,0 l/m 2 min 0 min 346 W/m 25,1 km/h (4 Bft)
09.11.2014 11:32 11,3 C 10,0 C 83 % 1007,6 hPa 0,0 l/m 2 min 0 min 406 W/m 18,8 km/h (3 Bft)
09.11.2014 11:34 11,3 C 10,0 C 83 % 1007,5 hPa 0,0 l/m 2 min 0 min 379 W/m 18,8 km/h (3 Bft)
09.11.2014 11:36 11,3 C 10,0 C 83 % 1007,5 hPa 0,0 l/m 2 min 0 min 259 W/m 23,0 km/h (4 Bft)
09.11.2014 11:38 11,3 C 9,4 C 83 % 1007,5 hPa 0,0 l/m 0 min 0 min 132 W/m 18,8 km/h (3 Bft)
09.11.2014 11:40 11,3 C 9,4 C 82 % 1007,5 hPa 0,0 l/m 0 min 0 min 161 W/m 23,0 km/h (4 Bft)
09.11.2014 11:42 11,3 C 9,4 C 82 % 1007,5 hPa 0,0 l/m 2 min 0 min 234 W/m 20,9 km/h (4 Bft)
09.11.2014 11:44 11,3 C 10,0 C 82 % 1007,4 hPa 0,0 l/m 2 min 0 min 327 W/m 23,0 km/h (4 Bft)
09.11.2014 11:46 11,3 C 10,0 C 82 % 1007,4 hPa 0,0 l/m 2 min 0 min 455 W/m 25,1 km/h (4 Bft)
09.11.2014 11:48 11,3 C 10,0 C 83 % 1007,5 hPa 0,0 l/m 2 min 0 min 443 W/m 18,8 km/h (3 Bft)
09.11.2014 11:50 11,4 C 10,6 C 83 % 1007,5 hPa 0,0 l/m 2 min 0 min 418 W/m 27,2 km/h (4 Bft)
09.11.2014 11:52 11,4 C 10,0 C 83 % 1007,5 hPa 0,0 l/m 2 min 0 min 366 W/m 23,0 km/h (4 Bft)
09.11.2014 11:54 11,5 C 10,0 C 83 % 1007,5 hPa 0,0 l/m 2 min 0 min 297 W/m 23,0 km/h (4 Bft)
09.11.2014 11:56 11,6 C 10,0 C 83 % 1007,5 hPa 0,0 l/m 2 min 0 min 238 W/m 25,1 km/h (4 Bft)
09.11.2014 11:58 11,6 C 10,0 C 82 % 1007,5 hPa 0,0 l/m 0 min 0 min 158 W/m 27,2 km/h (4 Bft)
09.11.2014 12:00 11,6 C 9,4 C 82 % 1007,4 hPa 0,0 l/m 0 min 0 min 117 W/m 16,7 km/h (3 Bft)
09.11.2014 12:02 11,5 C 9,4 C 81 % 1007,5 hPa 0,0 l/m 0 min 0 min 163 W/m 20,9 km/h (4 Bft)
09.11.2014 12:05 11,4 C 10,0 C 81 % 1007,4 hPa 0,0 l/m 2 min 0 min 241 W/m 23,0 km/h (4 Bft)
09.11.2014 12:08 11,4 C 10,0 C 82 % 1007,3 hPa 0,0 l/m 2 min 0 min 234 W/m 23,0 km/h (4 Bft)
09.11.2014 12:10 11,4 C 10,0 C 82 % 1007,2 hPa 0,0 l/m 2 min 0 min 273 W/m 16,7 km/h (3 Bft)
09.11.2014 12:12 11,4 C 10,0 C 82 % 1007,2 hPa 0,0 l/m 2 min 0 min 242 W/m 25,1 km/h (4 Bft)
09.11.2014 12:14 11,4 C 10,0 C 82 % 1007,2 hPa 0,0 l/m 2 min 0 min 279 W/m 29,3 km/h (5 Bft)
09.11.2014 12:16 11,3 C 10,0 C 82 % 1007,2 hPa 0,0 l/m 2 min 0 min 382 W/m 20,9 km/h (4 Bft)
09.11.2014 12:18 11,4 C 10,0 C 82 % 1007,1 hPa 0,0 l/m 2 min 0 min 365 W/m 20,9 km/h (4 Bft)
09.11.2014 12:20 11,4 C 10,0 C 82 % 1007,2 hPa 0,0 l/m 2 min 0 min 378 W/m 20,9 km/h (4 Bft)
09.11.2014 12:22 11,4 C 10,0 C 82 % 1007,2 hPa 0,0 l/m 2 min 0 min 366 W/m 20,9 km/h (4 Bft)
09.11.2014 12:24 11,5 C 10,0 C 82 % 1007,1 hPa 0,0 l/m 2 min 0 min 354 W/m 16,7 km/h (3 Bft)
09.11.2014 12:26 11,6 C 10,0 C 82 % 1007,2 hPa 0,0 l/m 2 min 0 min 341 W/m 16,7 km/h (3 Bft)
09.11.2014 12:28 11,7 C 10,0 C 82 % 1007,1 hPa 0,0 l/m 2 min 0 min 329 W/m 18,8 km/h (3 Bft)
09.11.2014 12:30 11,7 C 10,6 C 82 % 1007,2 hPa 0,0 l/m 2 min 0 min 326 W/m 16,7 km/h (3 Bft)
09.11.2014 12:32 11,8 C 10,6 C 82 % 1007,2 hPa 0,0 l/m 2 min 0 min 318 W/m 16,7 km/h (3 Bft)
09.11.2014 12:34 11,8 C 10,0 C 81 % 1007,1 hPa 0,0 l/m 2 min 0 min 300 W/m 23,0 km/h (4 Bft)
09.11.2014 12:36 11,9 C 10,0 C 81 % 1007,2 hPa 0,0 l/m 2 min 0 min 302 W/m 25,1 km/h (4 Bft)
09.11.2014 12:37 11,9 C 10,0 C 81 % 1007,1 hPa 0,0 l/m 1 min 0 min 274 W/m 18,8 km/h (3 Bft)
09.11.2014 12:38 11,9 C 10,0 C 81 % 1007,1 hPa 0,0 l/m 1 min 0 min 279 W/m 20,9 km/h (4 Bft)
09.11.2014 12:39 11,9 C 10,0 C 81 % 1007,1 hPa 0,0 l/m 1 min 0 min 267 W/m 23,0 km/h (4 Bft)
09.11.2014 12:40 12,0 C 10,0 C 81 % 1007,0 hPa 0,0 l/m 1 min 0 min 260 W/m 23,0 km/h (4 Bft)
09.11.2014 12:41 12,0 C 10,0 C 81 % 1007,1 hPa 0,0 l/m 1 min 0 min 260 W/m 14,6 km/h (3 Bft)
09.11.2014 12:42 12,0 C 10,0 C 80 % 1007,1 hPa 0,0 l/m 0 min 0 min 125 W/m 25,1 km/h (4 Bft)
09.11.2014 12:43 12,0 C 10,0 C 80 % 1007,1 hPa 0,0 l/m 0 min 0 min 179 W/m 23,0 km/h (4 Bft)
09.11.2014 12:44 12,0 C 10,0 C 80 % 1007,1 hPa 0,0 l/m 1 min 0 min 197 W/m 16,7 km/h (3 Bft)
09.11.2014 12:45 11,9 C 10,0 C 80 % 1007,1 hPa 0,0 l/m 1 min 0 min 241 W/m 25,1 km/h (4 Bft)
09.11.2014 12:46 11,9 C 10,0 C 80 % 1007,1 hPa 0,0 l/m 1 min 0 min 241 W/m 23,0 km/h (4 Bft)
09.11.2014 12:47 11,9 C 10,0 C 80 % 1007,1 hPa 0,0 l/m 1 min 0 min 192 W/m 23,0 km/h (4 Bft)
09.11.2014 12:48 11,9 C 10,0 C 80 % 1007,1 hPa 0,0 l/m 1 min 0 min 229 W/m 16,7 km/h (3 Bft)
09.11.2014 12:49 11,9 C 10,0 C 80 % 1007,1 hPa 0,0 l/m 1 min 0 min 243 W/m 16,7 km/h (3 Bft)
09.11.2014 12:50 11,9 C 10,0 C 80 % 1007,1 hPa 0,0 l/m 1 min 0 min 260 W/m 27,2 km/h (4 Bft)
09.11.2014 12:51 11,9 C 10,0 C 80 % 1007,1 hPa 0,0 l/m 1 min 0 min 297 W/m 27,2 km/h (4 Bft)
09.11.2014 12:52 11,9 C 10,0 C 80 % 1007,1 hPa 0,0 l/m 1 min 0 min 297 W/m 20,9 km/h (4 Bft)
09.11.2014 12:53 11,9 C 10,0 C 80 % 1007,1 hPa 0,0 l/m 1 min 0 min 297 W/m 20,9 km/h (4 Bft)
09.11.2014 12:54 11,9 C 10,0 C 80 % 1007,1 hPa 0,0 l/m 1 min 0 min 230 W/m 14,6 km/h (3 Bft)
09.11.2014 12:55 11,9 C 10,0 C 80 % 1007,1 hPa 0,0 l/m 1 min 0 min 230 W/m 16,7 km/h (3 Bft)
09.11.2014 12:56 11,8 C 10,0 C 80 % 1007,1 hPa 0,0 l/m 1 min 0 min 291 W/m 20,9 km/h (4 Bft)
09.11.2014 12:57 11,9 C 10,0 C 80 % 1007,1 hPa 0,0 l/m 1 min 0 min 288 W/m 10,5 km/h (2 Bft)
09.11.2014 12:58 11,9 C 10,0 C 80 % 1007,0 hPa 0,0 l/m 1 min 0 min 297 W/m 16,7 km/h (3 Bft)
09.11.2014 12:59 11,9 C 10,0 C 81 % 1007,1 hPa 0,0 l/m 1 min 0 min 297 W/m 16,7 km/h (3 Bft)
09.11.2014 13:00 11,9 C 10,0 C 81 % 1007,1 hPa 0,0 l/m 1 min 0 min 297 W/m 16,7 km/h (3 Bft)
09.11.2014 13:01 11,9 C 10,0 C 81 % 1007,1 hPa 0,0 l/m 1 min 0 min 292 W/m 14,6 km/h (3 Bft)
09.11.2014 13:02 11,9 C 10,0 C 81 % 1007,1 hPa 0,0 l/m 1 min 0 min 288 W/m 18,8 km/h (3 Bft)
09.11.2014 13:03 11,9 C 10,6 C 81 % 1007,0 hPa 0,0 l/m 1 min 0 min 214 W/m 14,6 km/h (3 Bft)
09.11.2014 13:04 11,9 C 10,6 C 81 % 1007,0 hPa 0,0 l/m 1 min 0 min 213 W/m 23,0 km/h (4 Bft)
09.11.2014 13:05 12,0 C 10,6 C 81 % 1007,1 hPa 0,0 l/m 1 min 0 min 255 W/m 20,9 km/h (4 Bft)
09.11.2014 13:06 12,0 C 10,6 C 81 % 1007,0 hPa 0,0 l/m 1 min 0 min 253 W/m 23,0 km/h (4 Bft)
09.11.2014 13:07 12,0 C 10,0 C 80 % 1007,1 hPa 0,0 l/m 1 min 0 min 253 W/m 16,7 km/h (3 Bft)
09.11.2014 13:08 12,0 C 10,0 C 80 % 1007,0 hPa 0,0 l/m 1 min 0 min 255 W/m 20,9 km/h (4 Bft)
09.11.2014 13:09 12,1 C 10,6 C 80 % 1007,0 hPa 0,0 l/m 1 min 0 min 278 W/m 12,6 km/h (3 Bft)
09.11.2014 13:10 12,1 C 10,6 C 80 % 1007,0 hPa 0,0 l/m 1 min 0 min 281 W/m 10,5 km/h (2 Bft)
09.11.2014 13:11 12,1 C 10,6 C 80 % 1007,0 hPa 0,0 l/m 1 min 0 min 230 W/m 18,8 km/h (3 Bft)
09.11.2014 13:12 12,1 C 10,6 C 80 % 1007,0 hPa 0,0 l/m 1 min 0 min 267 W/m 20,9 km/h (4 Bft)
09.11.2014 13:13 12,1 C 10,6 C 80 % 1007,0 hPa 0,0 l/m 1 min 0 min 288 W/m 20,9 km/h (4 Bft)
09.11.2014 13:14 12,1 C 10,6 C 80 % 1007,0 hPa 0,0 l/m 1 min 0 min 285 W/m 16,7 km/h (3 Bft)
09.11.2014 13:15 12,1 C 10,6 C 80 % 1007,0 hPa 0,0 l/m 1 min 0 min 299 W/m 16,7 km/h (3 Bft)
09.11.2014 13:16 12,1 C 10,6 C 80 % 1007,0 hPa 0,0 l/m 1 min 0 min 323 W/m 14,6 km/h (3 Bft)
09.11.2014 13:17 12,1 C 10,6 C 80 % 1007,0 hPa 0,0 l/m 1 min 0 min 327 W/m 16,7 km/h (3 Bft)
09.11.2014 13:18 12,2 C 10,6 C 80 % 1007,0 hPa 0,0 l/m 1 min 0 min 338 W/m 12,6 km/h (3 Bft)
09.11.2014 13:19 12,2 C 10,6 C 80 % 1007,0 hPa 0,0 l/m 1 min 0 min 321 W/m 14,6 km/h (3 Bft)
09.11.2014 13:20 12,2 C 10,6 C 80 % 1007,0 hPa 0,0 l/m 1 min 0 min 299 W/m 16,7 km/h (3 Bft)
09.11.2014 13:21 12,2 C 10,6 C 80 % 1007,0 hPa 0,0 l/m 1 min 0 min 292 W/m 16,7 km/h (3 Bft)
09.11.2014 13:22 12,3 C 10,6 C 80 % 1006,9 hPa 0,0 l/m 1 min 0 min 316 W/m 16,7 km/h (3 Bft)
09.11.2014 13:23 12,3 C 10,6 C 81 % 1007,0 hPa 0,0 l/m 1 min 0 min 302 W/m 20,9 km/h (4 Bft)
09.11.2014 13:24 12,3 C 10,6 C 81 % 1007,0 hPa 0,0 l/m 1 min 0 min 306 W/m 18,8 km/h (3 Bft)
09.11.2014 13:25 12,4 C 10,6 C 80 % 1006,9 hPa 0,0 l/m 1 min 0 min 297 W/m 14,6 km/h (3 Bft)
09.11.2014 13:26 12,4 C 10,6 C 80 % 1006,9 hPa 0,0 l/m 1 min 0 min 297 W/m 27,2 km/h (4 Bft)
09.11.2014 13:27 12,4 C 10,6 C 80 % 1006,9 hPa 0,0 l/m 1 min 0 min 299 W/m 20,9 km/h (4 Bft)
09.11.2014 13:28 12,4 C 10,6 C 80 % 1006,9 hPa 0,0 l/m 1 min 0 min 285 W/m 16,7 km/h (3 Bft)
09.11.2014 13:29 12,4 C 10,6 C 79 % 1006,9 hPa 0,0 l/m 1 min 0 min 279 W/m 18,8 km/h (3 Bft)
09.11.2014 13:36 12,5 C 10,6 C 79 % 1006,7 hPa 0,0 l/m 2 min 0 min 212 W/m 12,6 km/h (3 Bft)
09.11.2014 13:38 12,5 C 10,6 C 79 % 1006,7 hPa 0,0 l/m 2 min 0 min 240 W/m 12,6 km/h (3 Bft)
09.11.2014 13:40 12,6 C 10,6 C 79 % 1006,7 hPa 0,0 l/m 2 min 0 min 253 W/m 10,5 km/h (2 Bft)
09.11.2014 13:42 12,6 C 10,6 C 79 % 1006,7 hPa 0,0 l/m 2 min 0 min 259 W/m 12,6 km/h (3 Bft)
09.11.2014 13:44 12,6 C 10,6 C 79 % 1006,7 hPa 0,0 l/m 2 min 0 min 279 W/m 14,6 km/h (3 Bft)
09.11.2014 13:46 12,6 C 11,1 C 79 % 1006,7 hPa 0,0 l/m 2 min 0 min 296 W/m 18,8 km/h (3 Bft)
09.11.2014 13:48 12,7 C 11,1 C 79 % 1006,7 hPa 0,0 l/m 2 min 0 min 309 W/m 20,9 km/h (4 Bft)
09.11.2014 13:50 12,7 C 11,1 C 79 % 1006,7 hPa 0,0 l/m 2 min 0 min 288 W/m 20,9 km/h (4 Bft)
09.11.2014 13:52 12,7 C 11,1 C 78 % 1006,6 hPa 0,0 l/m 2 min 0 min 294 W/m 14,6 km/h (3 Bft)
09.11.2014 13:54 12,8 C 11,1 C 78 % 1006,6 hPa 0,0 l/m 2 min 0 min 278 W/m 18,8 km/h (3 Bft)
09.11.2014 13:56 12,8 C 11,1 C 78 % 1006,6 hPa 0,0 l/m 2 min 0 min 257 W/m 18,8 km/h (3 Bft)
09.11.2014 13:58 12,9 C 11,1 C 78 % 1006,6 hPa 0,0 l/m 2 min 0 min 243 W/m 23,0 km/h (4 Bft)
09.11.2014 14:00 12,9 C 11,1 C 78 % 1006,6 hPa 0,0 l/m 2 min 0 min 219 W/m 29,3 km/h (5 Bft)
09.11.2014 14:02 12,9 C 10,6 C 77 % 1006,6 hPa 0,0 l/m 2 min 0 min 178 W/m 20,9 km/h (4 Bft)
09.11.2014 14:04 12,9 C 10,6 C 77 % 1006,7 hPa 0,0 l/m 2 min 0 min 176 W/m 25,1 km/h (4 Bft)
09.11.2014 14:06 12,8 C 10,6 C 77 % 1006,7 hPa 0,0 l/m 2 min 0 min 176 W/m 23,0 km/h (4 Bft)
09.11.2014 14:08 12,8 C 10,6 C 77 % 1006,6 hPa 0,0 l/m 2 min 0 min 181 W/m 20,9 km/h (4 Bft)
09.11.2014 14:10 12,7 C 10,6 C 78 % 1006,6 hPa 0,0 l/m 2 min 0 min 171 W/m 16,7 km/h (3 Bft)
09.11.2014 14:12 12,7 C 10,6 C 78 % 1006,5 hPa 0,0 l/m 0 min 0 min 140 W/m 12,6 km/h (3 Bft)
09.11.2014 14:14 12,7 C 10,6 C 78 % 1006,5 hPa 0,0 l/m 0 min 0 min 104 W/m 18,8 km/h (3 Bft)
09.11.2014 14:16 12,7 C 10,6 C 78 % 1006,5 hPa 0,0 l/m 0 min 0 min 102 W/m 12,6 km/h (3 Bft)
09.11.2014 14:18 12,7 C 10,6 C 78 % 1006,5 hPa 0,0 l/m 0 min 0 min 103 W/m 10,5 km/h (2 Bft)
09.11.2014 14:20 12,6 C 10,6 C 78 % 1006,6 hPa 0,0 l/m 0 min 0 min 108 W/m 18,8 km/h (3 Bft)
09.11.2014 14:22 12,6 C 10,6 C 78 % 1006,6 hPa 0,0 l/m 0 min 0 min 118 W/m 18,8 km/h (3 Bft)
09.11.2014 14:24 12,6 C 10,6 C 78 % 1006,6 hPa 0,0 l/m 0 min 0 min 127 W/m 18,8 km/h (3 Bft)
09.11.2014 14:26 12,5 C 10,6 C 79 % 1006,6 hPa 0,0 l/m 0 min 0 min 132 W/m 12,6 km/h (3 Bft)
09.11.2014 14:28 12,4 C 10,6 C 79 % 1006,6 hPa 0,0 l/m 0 min 0 min 132 W/m 8,4 km/h (2 Bft)
09.11.2014 14:30 12,4 C 10,6 C 79 % 1006,6 hPa 0,0 l/m 0 min 0 min 129 W/m 23,0 km/h (4 Bft)
09.11.2014 14:32 12,4 C 10,6 C 79 % 1006,6 hPa 0,0 l/m 0 min 0 min 132 W/m 20,9 km/h (4 Bft)
09.11.2014 14:34 12,3 C 10,6 C 79 % 1006,6 hPa 0,0 l/m 0 min 0 min 133 W/m 14,6 km/h (3 Bft)
09.11.2014 14:36 12,3 C 10,6 C 79 % 1006,7 hPa 0,0 l/m 0 min 0 min 126 W/m 14,6 km/h (3 Bft)
09.11.2014 14:38 12,2 C 10,6 C 80 % 1006,8 hPa 0,0 l/m 0 min 0 min 117 W/m 16,7 km/h (3 Bft)
09.11.2014 14:40 12,2 C 10,6 C 80 % 1006,7 hPa 0,0 l/m 0 min 0 min 108 W/m 18,8 km/h (3 Bft)
09.11.2014 14:42 12,2 C 10,6 C 80 % 1006,7 hPa 0,0 l/m 0 min 0 min 105 W/m 16,7 km/h (3 Bft)
09.11.2014 14:44 12,1 C 10,6 C 80 % 1006,7 hPa 0,0 l/m 0 min 0 min 102 W/m 16,7 km/h (3 Bft)
09.11.2014 14:46 12,1 C 10,6 C 80 % 1006,7 hPa 0,0 l/m 0 min 0 min 96 W/m 10,5 km/h (2 Bft)
09.11.2014 14:48 12,1 C 10,6 C 80 % 1006,8 hPa 0,0 l/m 0 min 0 min 89 W/m 14,6 km/h (3 Bft)
09.11.2014 14:50 12,1 C 10,6 C 80 % 1006,8 hPa 0,0 l/m 0 min 0 min 81 W/m 18,8 km/h (3 Bft)
09.11.2014 14:52 12,0 C 10,6 C 80 % 1006,9 hPa 0,0 l/m 0 min 0 min 75 W/m 20,9 km/h (4 Bft)
09.11.2014 14:54 12,0 C 10,6 C 80 % 1007,0 hPa 0,0 l/m 0 min 0 min 75 W/m 20,9 km/h (4 Bft)
09.11.2014 14:56 11,9 C 10,6 C 80 % 1006,9 hPa 0,0 l/m 0 min 0 min 78 W/m 23,0 km/h (4 Bft)
09.11.2014 14:58 11,9 C 10,6 C 80 % 1006,9 hPa 0,0 l/m 0 min 0 min 83 W/m 14,6 km/h (3 Bft)
09.11.2014 15:00 11,9 C 10,6 C 81 % 1006,9 hPa 0,0 l/m 0 min 0 min 85 W/m 16,7 km/h (3 Bft)
09.11.2014 15:02 11,9 C 10,6 C 81 % 1007,0 hPa 0,0 l/m 0 min 0 min 86 W/m 16,7 km/h (3 Bft)
09.11.2014 15:04 11,8 C 10,6 C 81 % 1007,0 hPa 0,0 l/m 0 min 0 min 84 W/m 14,6 km/h (3 Bft)
09.11.2014 15:06 11,8 C 10,6 C 81 % 1007,0 hPa 0,0 l/m 0 min 0 min 80 W/m 20,9 km/h (4 Bft)
09.11.2014 15:08 11,8 C 10,6 C 81 % 1007,1 hPa 0,0 l/m 0 min 0 min 77 W/m 14,6 km/h (3 Bft)
09.11.2014 15:10 11,8 C 10,6 C 81 % 1007,1 hPa 0,0 l/m 0 min 0 min 76 W/m 16,7 km/h (3 Bft)
09.11.2014 15:12 11,7 C 10,6 C 81 % 1007,1 hPa 0,0 l/m 0 min 0 min 74 W/m 20,9 km/h (4 Bft)
09.11.2014 15:14 11,7 C 10,6 C 81 % 1007,1 hPa 0,0 l/m 0 min 0 min 70 W/m 14,6 km/h (3 Bft)
09.11.2014 15:16 11,7 C 10,6 C 81 % 1007,1 hPa 0,0 l/m 0 min 0 min 64 W/m 14,6 km/h (3 Bft)
09.11.2014 15:18 11,7 C 10,6 C 82 % 1007,2 hPa 0,0 l/m 0 min 0 min 59 W/m 20,9 km/h (4 Bft)
09.11.2014 15:20 11,7 C 10,0 C 82 % 1007,3 hPa 0,0 l/m 0 min 0 min 55 W/m 20,9 km/h (4 Bft)
09.11.2014 15:22 11,6 C 10,0 C 82 % 1007,2 hPa 0,0 l/m 0 min 0 min 51 W/m 23,0 km/h (4 Bft)
09.11.2014 15:24 11,6 C 10,0 C 81 % 1007,1 hPa 0,0 l/m 0 min 0 min 48 W/m 14,6 km/h (3 Bft)
09.11.2014 15:26 11,6 C 10,0 C 82 % 1007,1 hPa 0,0 l/m 0 min 0 min 46 W/m 12,6 km/h (3 Bft)
09.11.2014 15:28 11,6 C 10,0 C 82 % 1007,2 hPa 0,0 l/m 0 min 0 min 46 W/m 14,6 km/h (3 Bft)
09.11.2014 15:30 11,6 C 10,0 C 82 % 1007,2 hPa 0,0 l/m 0 min 0 min 46 W/m 16,7 km/h (3 Bft)
09.11.2014 15:32 11,6 C 10,0 C 82 % 1007,1 hPa 0,0 l/m 0 min 0 min 47 W/m 14,6 km/h (3 Bft)
09.11.2014 15:34 11,5 C 10,0 C 82 % 1007,0 hPa 0,0 l/m 0 min 0 min 47 W/m 14,6 km/h (3 Bft)
09.11.2014 15:36 11,5 C 10,0 C 82 % 1007,1 hPa 0,0 l/m 0 min 0 min 47 W/m 18,8 km/h (3 Bft)
09.11.2014 15:38 11,5 C 10,0 C 82 % 1007,2 hPa 0,0 l/m 0 min 0 min 45 W/m 18,8 km/h (3 Bft)
09.11.2014 15:40 11,5 C 10,0 C 82 % 1007,2 hPa 0,0 l/m 0 min 0 min 43 W/m 16,7 km/h (3 Bft)
09.11.2014 15:42 11,4 C 10,0 C 83 % 1007,3 hPa 0,0 l/m 0 min 0 min 42 W/m 14,6 km/h (3 Bft)
09.11.2014 15:44 11,4 C 10,0 C 83 % 1007,3 hPa 0,0 l/m 0 min 0 min 42 W/m 16,7 km/h (3 Bft)
09.11.2014 15:46 11,4 C 10,0 C 83 % 1007,2 hPa 0,0 l/m 0 min 0 min 41 W/m 14,6 km/h (3 Bft)
09.11.2014 15:48 11,4 C 10,0 C 83 % 1007,2 hPa 0,0 l/m 0 min 0 min 39 W/m 14,6 km/h (3 Bft)
09.11.2014 15:50 11,4 C 10,0 C 83 % 1007,2 hPa 0,0 l/m 0 min 0 min 37 W/m 14,6 km/h (3 Bft)
09.11.2014 15:52 11,4 C 10,0 C 83 % 1007,2 hPa 0,0 l/m 0 min 0 min 37 W/m 10,5 km/h (2 Bft)
09.11.2014 15:54 11,3 C 10,0 C 83 % 1007,2 hPa 0,0 l/m 0 min 0 min 36 W/m 12,6 km/h (3 Bft)
09.11.2014 15:56 11,3 C 10,0 C 83 % 1007,2 hPa 0,0 l/m 0 min 0 min 35 W/m 14,6 km/h (3 Bft)
09.11.2014 15:58 11,3 C 10,0 C 83 % 1007,2 hPa 0,0 l/m 0 min 0 min 35 W/m 12,6 km/h (3 Bft)
09.11.2014 16:00 11,3 C 10,0 C 83 % 1007,2 hPa 0,0 l/m 0 min 0 min 33 W/m 14,6 km/h (3 Bft)
09.11.2014 16:02 11,3 C 9,4 C 83 % 1007,2 hPa 0,0 l/m 0 min 0 min 32 W/m 14,6 km/h (3 Bft)
09.11.2014 16:04 11,3 C 9,4 C 83 % 1007,2 hPa 0,0 l/m 0 min 0 min 30 W/m 16,7 km/h (3 Bft)
09.11.2014 16:06 11,3 C 9,4 C 83 % 1007,1 hPa 0,0 l/m 0 min 0 min 30 W/m 12,6 km/h (3 Bft)
09.11.2014 16:08 11,2 C 9,4 C 84 % 1007,1 hPa 0,0 l/m 0 min 0 min 28 W/m 12,6 km/h (3 Bft)
09.11.2014 16:10 11,2 C 9,4 C 84 % 1007,1 hPa 0,0 l/m 0 min 0 min 28 W/m 12,6 km/h (3 Bft)
09.11.2014 16:12 11,2 C 9,4 C 84 % 1007,1 hPa 0,0 l/m 0 min 0 min 26 W/m 6,3 km/h (2 Bft)
09.11.2014 16:14 11,2 C 9,4 C 84 % 1007,1 hPa 0,0 l/m 0 min 0 min 25 W/m 12,6 km/h (3 Bft)
09.11.2014 16:16 11,2 C 9,4 C 84 % 1007,1 hPa 0,0 l/m 0 min 0 min 24 W/m 16,7 km/h (3 Bft)
09.11.2014 16:18 11,2 C 9,4 C 84 % 1007,1 hPa 0,0 l/m 0 min 0 min 22 W/m 12,6 km/h (3 Bft)
09.11.2014 16:20 11,1 C 9,4 C 84 % 1007,2 hPa 0,0 l/m 0 min 0 min 21 W/m 14,6 km/h (3 Bft)
09.11.2014 16:22 11,1 C 9,4 C 84 % 1007,2 hPa 0,0 l/m 0 min 0 min 19 W/m 14,6 km/h (3 Bft)
09.11.2014 16:24 11,1 C 9,4 C 84 % 1007,2 hPa 0,0 l/m 0 min 0 min 18 W/m 12,6 km/h (3 Bft)
09.11.2014 16:26 11,1 C 9,4 C 84 % 1007,2 hPa 0,0 l/m 0 min 0 min 18 W/m 10,5 km/h (2 Bft)
09.11.2014 16:28 11,1 C 9,4 C 84 % 1007,2 hPa 0,0 l/m 0 min 0 min 18 W/m 12,6 km/h (3 Bft)
09.11.2014 16:30 11,0 C 9,4 C 84 % 1007,3 hPa 0,0 l/m 0 min 0 min 18 W/m 10,5 km/h (2 Bft)
09.11.2014 16:32 11,0 C 9,4 C 84 % 1007,2 hPa 0,0 l/m 0 min 0 min 17 W/m 10,5 km/h (2 Bft)
09.11.2014 16:34 10,9 C 9,4 C 84 % 1007,2 hPa 0,0 l/m 0 min 0 min 15 W/m 16,7 km/h (3 Bft)
09.11.2014 16:36 10,9 C 9,4 C 85 % 1007,2 hPa 0,0 l/m 0 min 0 min 12 W/m 10,5 km/h (2 Bft)
09.11.2014 16:38 10,9 C 8,9 C 85 % 1007,2 hPa 0,0 l/m 0 min 0 min 11 W/m 10,5 km/h (2 Bft)
09.11.2014 16:40 10,9 C 9,4 C 85 % 1007,2 hPa 0,0 l/m 0 min 0 min 9 W/m 14,6 km/h (3 Bft)
09.11.2014 16:42 10,9 C 8,9 C 85 % 1007,2 hPa 0,0 l/m 0 min 0 min 9 W/m 12,6 km/h (3 Bft)
09.11.2014 16:44 10,9 C 8,9 C 85 % 1007,2 hPa 0,0 l/m 0 min 0 min 9 W/m 12,6 km/h (3 Bft)
09.11.2014 16:46 10,8 C 8,9 C 85 % 1007,2 hPa 0,0 l/m 0 min 0 min 7 W/m 12,6 km/h (3 Bft)
09.11.2014 16:48 10,8 C 8,9 C 85 % 1007,2 hPa 0,0 l/m 0 min 0 min 6 W/m 10,5 km/h (2 Bft)
09.11.2014 16:50 10,8 C 8,9 C 85 % 1007,2 hPa 0,0 l/m 0 min 0 min 5 W/m 16,7 km/h (3 Bft)
09.11.2014 16:52 10,8 C 8,9 C 85 % 1007,1 hPa 0,0 l/m 0 min 0 min 5 W/m 14,6 km/h (3 Bft)
09.11.2014 16:54 10,8 C 8,9 C 85 % 1007,1 hPa 0,0 l/m 0 min 0 min 5 W/m 10,5 km/h (2 Bft)
09.11.2014 16:56 10,7 C 8,9 C 85 % 1007,2 hPa 0,0 l/m 0 min 0 min 1 W/m 8,4 km/h (2 Bft)
09.11.2014 16:58 10,7 C 8,9 C 85 % 1007,2 hPa 0,0 l/m 0 min 0 min 0 W/m 12,6 km/h (3 Bft)
09.11.2014 17:00 10,7 C 8,9 C 85 % 1007,2 hPa 0,0 l/m 0 min 0 min 0 W/m 12,6 km/h (3 Bft)
09.11.2014 17:02 10,7 C 8,9 C 85 % 1007,3 hPa 0,0 l/m 0 min 0 min 0 W/m 8,4 km/h (2 Bft)
09.11.2014 17:04 10,6 C 8,9 C 85 % 1007,4 hPa 0,0 l/m 0 min 0 min 0 W/m 10,5 km/h (2 Bft)
09.11.2014 17:06 10,6 C 8,9 C 86 % 1007,4 hPa 0,0 l/m 0 min 0 min 0 W/m 8,4 km/h (2 Bft)
09.11.2014 17:08 10,6 C 8,9 C 85 % 1007,4 hPa 0,0 l/m 0 min 0 min 0 W/m 14,6 km/h (3 Bft)
09.11.2014 17:10 10,6 C 8,3 C 85 % 1007,5 hPa 0,0 l/m 0 min 0 min 0 W/m 12,6 km/h (3 Bft)
09.11.2014 17:12 10,5 C 8,3 C 85 % 1007,5 hPa 0,0 l/m 0 min 0 min 0 W/m 16,7 km/h (3 Bft)
09.11.2014 17:14 10,5 C 8,3 C 86 % 1007,5 hPa 0,0 l/m 0 min 0 min 0 W/m 12,6 km/h (3 Bft)
09.11.2014 17:16 10,4 C 8,3 C 86 % 1007,6 hPa 0,0 l/m 0 min 0 min 0 W/m 10,5 km/h (2 Bft)
09.11.2014 17:18 10,4 C 8,3 C 86 % 1007,6 hPa 0,0 l/m 0 min 0 min 0 W/m 14,6 km/h (3 Bft)
09.11.2014 17:20 10,4 C 8,3 C 86 % 1007,7 hPa 0,0 l/m 0 min 0 min 0 W/m 14,6 km/h (3 Bft)
09.11.2014 17:22 10,3 C 8,3 C 86 % 1007,7 hPa 0,0 l/m 0 min 0 min 0 W/m 8,4 km/h (2 Bft)
09.11.2014 17:24 10,3 C 8,3 C 86 % 1007,6 hPa 0,0 l/m 0 min 0 min 0 W/m 6,3 km/h (2 Bft)
09.11.2014 17:26 10,3 C 8,3 C 86 % 1007,6 hPa 0,0 l/m 0 min 0 min 0 W/m 14,6 km/h (3 Bft)
09.11.2014 17:28 10,2 C 8,3 C 86 % 1007,6 hPa 0,0 l/m 0 min 0 min 0 W/m 8,4 km/h (2 Bft)
09.11.2014 17:30 10,2 C 7,8 C 86 % 1007,7 hPa 0,0 l/m 0 min 0 min 0 W/m 8,4 km/h (2 Bft)
09.11.2014 17:32 10,2 C 7,8 C 86 % 1007,7 hPa 0,0 l/m 0 min 0 min 0 W/m 10,5 km/h (2 Bft)
09.11.2014 17:34 10,2 C 7,8 C 86 % 1007,7 hPa 0,0 l/m 0 min 0 min 0 W/m 8,4 km/h (2 Bft)
09.11.2014 17:36 10,1 C 7,8 C 86 % 1007,7 hPa 0,0 l/m 0 min 0 min 0 W/m 12,6 km/h (3 Bft)
09.11.2014 17:38 10,1 C 7,8 C 87 % 1007,6 hPa 0,0 l/m 0 min 0 min 0 W/m 10,5 km/h (2 Bft)
09.11.2014 17:40 10,0 C 7,8 C 87 % 1007,7 hPa 0,0 l/m 0 min 0 min 0 W/m 10,5 km/h (2 Bft)
09.11.2014 17:42 10,0 C 7,8 C 87 % 1007,6 hPa 0,0 l/m 0 min 0 min 0 W/m 10,5 km/h (2 Bft)
09.11.2014 17:44 9,9 C 7,8 C 86 % 1007,6 hPa 0,0 l/m 0 min 0 min 0 W/m 10,5 km/h (2 Bft)
09.11.2014 17:46 9,9 C 7,8 C 87 % 1007,6 hPa 0,0 l/m 0 min 0 min 0 W/m 14,6 km/h (3 Bft)
09.11.2014 17:48 9,9 C 7,8 C 87 % 1007,6 hPa 0,0 l/m 0 min 0 min 0 W/m 8,4 km/h (2 Bft)
09.11.2014 17:50 9,8 C 7,8 C 87 % 1007,5 hPa 0,0 l/m 0 min 0 min 0 W/m 12,6 km/h (3 Bft)
09.11.2014 17:52 9,8 C 7,8 C 87 % 1007,5 hPa 0,0 l/m 0 min 0 min 0 W/m 10,5 km/h (2 Bft)
09.11.2014 17:54 9,7 C 7,8 C 87 % 1007,6 hPa 0,0 l/m 0 min 0 min 0 W/m 10,5 km/h (2 Bft)
09.11.2014 17:56 9,7 C 7,8 C 87 % 1007,6 hPa 0,0 l/m 0 min 0 min 0 W/m 10,5 km/h (2 Bft)
09.11.2014 17:58 9,7 C 7,8 C 87 % 1007,7 hPa 0,0 l/m 0 min 0 min 0 W/m 16,7 km/h (3 Bft)
09.11.2014 18:00 9,6 C 7,8 C 87 % 1007,7 hPa 0,0 l/m 0 min 0 min 0 W/m 10,5 km/h (2 Bft)
09.11.2014 18:02 9,6 C 7,8 C 87 % 1007,7 hPa 0,0 l/m 0 min 0 min 0 W/m 8,4 km/h (2 Bft)
09.11.2014 18:05 9,6 C 7,8 C 88 % 1007,9 hPa 0,0 l/m 0 min 0 min 0 W/m 12,6 km/h (3 Bft)
09.11.2014 18:06 9,5 C 7,8 C 88 % 1007,9 hPa 0,0 l/m 0 min 0 min 0 W/m 6,3 km/h (2 Bft)
09.11.2014 18:08 9,5 C 7,8 C 88 % 1007,9 hPa 0,0 l/m 0 min 0 min 0 W/m 10,5 km/h (2 Bft)
09.11.2014 18:10 9,5 C 7,8 C 88 % 1007,9 hPa 0,0 l/m 0 min 0 min 0 W/m 10,5 km/h (2 Bft)
09.11.2014 18:12 9,4 C 7,8 C 88 % 1007,9 hPa 0,0 l/m 0 min 0 min 0 W/m 14,6 km/h (3 Bft)
09.11.2014 18:14 9,4 C 7,8 C 88 % 1008,0 hPa 0,0 l/m 0 min 0 min 0 W/m 10,5 km/h (2 Bft)
09.11.2014 18:16 9,4 C 7,8 C 88 % 1008,1 hPa 0,0 l/m 0 min 0 min 0 W/m 16,7 km/h (3 Bft)
09.11.2014 18:18 9,4 C 7,8 C 88 % 1008,0 hPa 0,0 l/m 0 min 0 min 0 W/m 10,5 km/h (2 Bft)
09.11.2014 18:20 9,4 C 7,8 C 88 % 1008,0 hPa 0,0 l/m 0 min 0 min 0 W/m 8,4 km/h (2 Bft)
09.11.2014 18:22 9,3 C 7,8 C 89 % 1008,0 hPa 0,0 l/m 0 min 0 min 0 W/m 8,4 km/h (2 Bft)
09.11.2014 18:24 9,3 C 7,8 C 89 % 1008,0 hPa 0,0 l/m 0 min 0 min 0 W/m 12,6 km/h (3 Bft)
09.11.2014 18:26 9,3 C 7,8 C 89 % 1008,0 hPa 0,0 l/m 0 min 0 min 0 W/m 16,7 km/h (3 Bft)
09.11.2014 18:28 9,3 C 7,8 C 89 % 1008,0 hPa 0,0 l/m 0 min 0 min 0 W/m 16,7 km/h (3 Bft)
09.11.2014 18:30 9,3 C 7,8 C 89 % 1008,0 hPa 0,0 l/m 0 min 0 min 0 W/m 18,8 km/h (3 Bft)
09.11.2014 18:32 9,3 C 7,8 C 89 % 1007,9 hPa 0,0 l/m 0 min 0 min 0 W/m 10,5 km/h (2 Bft)
09.11.2014 18:34 9,3 C 7,8 C 89 % 1007,9 hPa 0,0 l/m 0 min 0 min 0 W/m 14,6 km/h (3 Bft)
09.11.2014 18:36 9,3 C 7,8 C 89 % 1007,9 hPa 0,0 l/m 0 min 0 min 0 W/m 12,6 km/h (3 Bft)
09.11.2014 18:38 9,2 C 7,8 C 89 % 1007,9 hPa 0,0 l/m 0 min 0 min 0 W/m 18,8 km/h (3 Bft)
09.11.2014 18:40 9,3 C 7,8 C 89 % 1007,8 hPa 0,0 l/m 0 min 0 min 0 W/m 16,7 km/h (3 Bft)
09.11.2014 18:42 9,2 C 7,8 C 90 % 1007,8 hPa 0,0 l/m 0 min 0 min 0 W/m 14,6 km/h (3 Bft)
09.11.2014 18:44 9,2 C 7,8 C 90 % 1007,8 hPa 0,0 l/m 0 min 0 min 0 W/m 20,9 km/h (4 Bft)
09.11.2014 18:46 9,2 C 7,8 C 90 % 1007,9 hPa 0,0 l/m 0 min 0 min 0 W/m 8,4 km/h (2 Bft)
09.11.2014 18:48 9,2 C 7,8 C 90 % 1007,9 hPa 0,0 l/m 0 min 0 min 0 W/m 12,6 km/h (3 Bft)
09.11.2014 18:50 9,2 C 7,8 C 90 % 1007,9 hPa 0,0 l/m 0 min 0 min 0 W/m 16,7 km/h (3 Bft)
09.11.2014 18:52 9,2 C 7,8 C 90 % 1007,8 hPa 0,0 l/m 0 min 0 min 0 W/m 8,4 km/h (2 Bft)
09.11.2014 18:54 9,2 C 7,8 C 90 % 1007,8 hPa 0,0 l/m 0 min 0 min 0 W/m 10,5 km/h (2 Bft)
09.11.2014 18:56 9,2 C 7,8 C 90 % 1007,8 hPa 0,0 l/m 0 min 0 min 0 W/m 16,7 km/h (3 Bft)
09.11.2014 18:58 9,2 C 7,8 C 90 % 1007,8 hPa 0,0 l/m 0 min 0 min 0 W/m 14,6 km/h (3 Bft)
09.11.2014 19:00 9,2 C 7,8 C 90 % 1007,7 hPa 0,0 l/m 0 min 0 min 0 W/m 18,8 km/h (3 Bft)
09.11.2014 19:02 9,2 C 7,8 C 90 % 1007,8 hPa 0,0 l/m 0 min 0 min 0 W/m 10,5 km/h (2 Bft)
09.11.2014 19:04 9,2 C 7,8 C 90 % 1007,8 hPa 0,0 l/m 0 min 0 min 0 W/m 14,6 km/h (3 Bft)
09.11.2014 19:06 9,2 C 7,8 C 90 % 1007,7 hPa 0,0 l/m 0 min 0 min 0 W/m 10,5 km/h (2 Bft)
09.11.2014 19:08 9,2 C 7,8 C 90 % 1007,8 hPa 0,0 l/m 0 min 0 min 0 W/m 14,6 km/h (3 Bft)
09.11.2014 19:10 9,2 C 7,8 C 90 % 1007,8 hPa 0,0 l/m 0 min 0 min 0 W/m 14,6 km/h (3 Bft)
09.11.2014 19:12 9,2 C 7,8 C 90 % 1007,9 hPa 0,0 l/m 0 min 0 min 0 W/m 14,6 km/h (3 Bft)
09.11.2014 19:14 9,2 C 7,8 C 90 % 1007,9 hPa 0,0 l/m 0 min 0 min 0 W/m 12,6 km/h (3 Bft)
09.11.2014 19:16 9,2 C 7,8 C 90 % 1007,9 hPa 0,0 l/m 0 min 0 min 0 W/m 10,5 km/h (2 Bft)
09.11.2014 19:18 9,2 C 7,8 C 90 % 1007,9 hPa 0,0 l/m 0 min 0 min 0 W/m 12,6 km/h (3 Bft)
09.11.2014 19:20 9,2 C 7,8 C 90 % 1007,9 hPa 0,0 l/m 0 min 0 min 0 W/m 12,6 km/h (3 Bft)
09.11.2014 19:22 9,2 C 7,8 C 90 % 1008,0 hPa 0,0 l/m 0 min 0 min 0 W/m 12,6 km/h (3 Bft)
09.11.2014 19:24 9,2 C 7,8 C 91 % 1007,9 hPa 0,0 l/m 0 min 0 min 0 W/m 10,5 km/h (2 Bft)
09.11.2014 19:26 9,1 C 7,8 C 90 % 1008,0 hPa 0,0 l/m 0 min 0 min 0 W/m 10,5 km/h (2 Bft)
09.11.2014 19:28 9,1 C 7,8 C 90 % 1007,9 hPa 0,0 l/m 0 min 0 min 0 W/m 10,5 km/h (2 Bft)
09.11.2014 19:30 9,1 C 7,8 C 90 % 1008,0 hPa 0,0 l/m 0 min 0 min 0 W/m 14,6 km/h (3 Bft)
09.11.2014 19:32 9,1 C 7,8 C 90 % 1008,0 hPa 0,0 l/m 0 min 0 min 0 W/m 16,7 km/h (3 Bft)
09.11.2014 19:34 9,1 C 7,8 C 90 % 1008,0 hPa 0,0 l/m 0 min 0 min 0 W/m 12,6 km/h (3 Bft)
09.11.2014 19:36 9,1 C 7,8 C 91 % 1007,9 hPa 0,0 l/m 0 min 0 min 0 W/m 14,6 km/h (3 Bft)
09.11.2014 19:38 9,1 C 7,8 C 91 % 1007,9 hPa 0,0 l/m 0 min 0 min 0 W/m 14,6 km/h (3 Bft)
09.11.2014 19:40 9,1 C 7,8 C 91 % 1007,8 hPa 0,0 l/m 0 min 0 min 0 W/m 10,5 km/h (2 Bft)
09.11.2014 19:42 9,1 C 7,8 C 91 % 1007,8 hPa 0,0 l/m 0 min 0 min 0 W/m 12,6 km/h (3 Bft)
09.11.2014 19:44 9,1 C 7,8 C 91 % 1007,8 hPa 0,0 l/m 0 min 0 min 0 W/m 14,6 km/h (3 Bft)
09.11.2014 19:46 9,1 C 7,8 C 91 % 1007,8 hPa 0,0 l/m 0 min 0 min 0 W/m 18,8 km/h (3 Bft)
09.11.2014 19:48 9,1 C 7,8 C 91 % 1007,8 hPa 0,0 l/m 0 min 0 min 0 W/m 14,6 km/h (3 Bft)
09.11.2014 19:50 9,1 C 7,8 C 91 % 1007,8 hPa 0,0 l/m 0 min 0 min 0 W/m 12,6 km/h (3 Bft)
09.11.2014 19:52 9,1 C 7,8 C 91 % 1007,8 hPa 0,0 l/m 0 min 0 min 0 W/m 10,5 km/h (2 Bft)
09.11.2014 19:54 9,1 C 7,8 C 91 % 1007,9 hPa 0,0 l/m 0 min 0 min 0 W/m 12,6 km/h (3 Bft)
09.11.2014 19:56 9,1 C 7,8 C 91 % 1007,8 hPa 0,0 l/m 0 min 0 min 0 W/m 12,6 km/h (3 Bft)
09.11.2014 19:58 9,1 C 7,8 C 91 % 1007,8 hPa 0,0 l/m 0 min 0 min 0 W/m 12,6 km/h (3 Bft)
09.11.2014 20:00 9,0 C 7,8 C 91 % 1007,8 hPa 0,0 l/m 0 min 0 min 0 W/m 12,6 km/h (3 Bft)
09.11.2014 20:02 9,1 C 7,8 C 91 % 1007,8 hPa 0,0 l/m 0 min 0 min 0 W/m 10,5 km/h (2 Bft)
09.11.2014 20:04 9,0 C 7,8 C 91 % 1007,8 hPa 0,0 l/m 0 min 0 min 0 W/m 16,7 km/h (3 Bft)
09.11.2014 20:06 9,0 C 7,2 C 91 % 1007,8 hPa 0,0 l/m 0 min 0 min 0 W/m 14,6 km/h (3 Bft)
09.11.2014 20:08 9,0 C 7,2 C 91 % 1007,8 hPa 0,0 l/m 0 min 0 min 0 W/m 12,6 km/h (3 Bft)
09.11.2014 20:10 9,0 C 7,2 C 91 % 1007,8 hPa 0,0 l/m 0 min 0 min 0 W/m 14,6 km/h (3 Bft)
09.11.2014 20:12 9,0 C 7,2 C 91 % 1007,9 hPa 0,0 l/m 0 min 0 min 0 W/m 10,5 km/h (2 Bft)
09.11.2014 20:14 8,9 C 7,2 C 91 % 1007,8 hPa 0,0 l/m 0 min 0 min 0 W/m 14,6 km/h (3 Bft)
09.11.2014 20:16 8,9 C 7,2 C 91 % 1007,9 hPa 0,0 l/m 0 min 0 min 0 W/m 14,6 km/h (3 Bft)
09.11.2014 20:18 8,9 C 7,2 C 91 % 1007,9 hPa 0,0 l/m 0 min 0 min 0 W/m 10,5 km/h (2 Bft)
09.11.2014 20:20 8,9 C 7,2 C 91 % 1007,9 hPa 0,0 l/m 0 min 0 min 0 W/m 8,4 km/h (2 Bft)
09.11.2014 20:22 8,9 C 7,2 C 91 % 1007,8 hPa 0,0 l/m 0 min 0 min 0 W/m 10,5 km/h (2 Bft)
09.11.2014 20:24 8,9 C 7,2 C 91 % 1007,8 hPa 0,0 l/m 0 min 0 min 0 W/m 14,6 km/h (3 Bft)
09.11.2014 20:26 8,9 C 7,2 C 91 % 1007,8 hPa 0,0 l/m 0 min 0 min 0 W/m 10,5 km/h (2 Bft)
09.11.2014 20:28 8,9 C 7,2 C 91 % 1007,8 hPa 0,0 l/m 0 min 0 min 0 W/m 12,6 km/h (3 Bft)
09.11.2014 20:30 8,9 C 7,2 C 91 % 1007,8 hPa 0,0 l/m 0 min 0 min 0 W/m 12,6 km/h (3 Bft)
09.11.2014 20:32 8,9 C 7,2 C 91 % 1007,8 hPa 0,0 l/m 0 min 0 min 0 W/m 12,6 km/h (3 Bft)
09.11.2014 20:34 8,9 C 7,2 C 91 % 1007,8 hPa 0,0 l/m 0 min 0 min 0 W/m 16,7 km/h (3 Bft)
09.11.2014 20:36 8,9 C 7,2 C 91 % 1007,8 hPa 0,0 l/m 0 min 0 min 0 W/m 12,6 km/h (3 Bft)
09.11.2014 20:38 8,8 C 7,2 C 91 % 1007,8 hPa 0,0 l/m 0 min 0 min 0 W/m 10,5 km/h (2 Bft)
09.11.2014 20:40 8,8 C 7,2 C 91 % 1007,8 hPa 0,0 l/m 0 min 0 min 0 W/m 6,3 km/h (2 Bft)
09.11.2014 20:42 8,8 C 7,2 C 91 % 1007,8 hPa 0,0 l/m 0 min 0 min 0 W/m 14,6 km/h (3 Bft)
09.11.2014 20:44 8,8 C 7,2 C 91 % 1007,8 hPa 0,0 l/m 0 min 0 min 0 W/m 12,6 km/h (3 Bft)
09.11.2014 20:46 8,8 C 7,2 C 92 % 1007,8 hPa 0,0 l/m 0 min 0 min 0 W/m 12,6 km/h (3 Bft)
09.11.2014 20:48 8,8 C 7,2 C 92 % 1007,8 hPa 0,0 l/m 0 min 0 min 0 W/m 8,4 km/h (2 Bft)
09.11.2014 20:50 8,8 C 7,2 C 92 % 1007,7 hPa 0,0 l/m 0 min 0 min 0 W/m 14,6 km/h (3 Bft)
09.11.2014 20:52 8,8 C 7,2 C 92 % 1007,8 hPa 0,0 l/m 0 min 0 min 0 W/m 10,5 km/h (2 Bft)
09.11.2014 20:54 8,8 C 7,2 C 92 % 1007,8 hPa 0,0 l/m 0 min 0 min 0 W/m 10,5 km/h (2 Bft)
09.11.2014 20:56 8,8 C 7,2 C 92 % 1007,8 hPa 0,0 l/m 0 min 0 min 0 W/m 10,5 km/h (2 Bft)
09.11.2014 20:58 8,7 C 7,2 C 92 % 1007,8 hPa 0,0 l/m 0 min 0 min 0 W/m 10,5 km/h (2 Bft)
09.11.2014 21:00 8,7 C 7,2 C 92 % 1007,8 hPa 0,0 l/m 0 min 0 min 0 W/m 12,6 km/h (3 Bft)
09.11.2014 21:02 8,7 C 7,2 C 92 % 1007,9 hPa 0,0 l/m 0 min 0 min 0 W/m 10,5 km/h (2 Bft)
09.11.2014 21:04 8,7 C 7,2 C 92 % 1007,9 hPa 0,0 l/m 0 min 0 min 0 W/m 10,5 km/h (2 Bft)
09.11.2014 21:06 8,7 C 7,2 C 92 % 1007,9 hPa 0,0 l/m 0 min 0 min 0 W/m 12,6 km/h (3 Bft)
09.11.2014 21:08 8,7 C 7,2 C 92 % 1007,9 hPa 0,0 l/m 0 min 0 min 0 W/m 8,4 km/h (2 Bft)
09.11.2014 21:10 8,7 C 7,2 C 92 % 1007,9 hPa 0,0 l/m 0 min 0 min 0 W/m 10,5 km/h (2 Bft)
09.11.2014 21:12 8,7 C 7,2 C 92 % 1008,0 hPa 0,0 l/m 0 min 0 min 0 W/m 10,5 km/h (2 Bft)
09.11.2014 21:14 8,7 C 7,2 C 92 % 1008,0 hPa 0,0 l/m 0 min 0 min 0 W/m 14,6 km/h (3 Bft)
09.11.2014 21:16 8,7 C 7,2 C 92 % 1008,0 hPa 0,0 l/m 0 min 0 min 0 W/m 14,6 km/h (3 Bft)
09.11.2014 21:18 8,7 C 7,2 C 92 % 1008,1 hPa 0,0 l/m 0 min 0 min 0 W/m 14,6 km/h (3 Bft)
09.11.2014 21:20 8,6 C 7,2 C 92 % 1008,0 hPa 0,0 l/m 0 min 0 min 0 W/m 12,6 km/h (3 Bft)
09.11.2014 21:22 8,6 C 7,2 C 92 % 1008,0 hPa 0,0 l/m 0 min 0 min 0 W/m 10,5 km/h (2 Bft)
09.11.2014 21:24 8,6 C 7,2 C 92 % 1008,0 hPa 0,0 l/m 0 min 0 min 0 W/m 14,6 km/h (3 Bft)
09.11.2014 21:26 8,6 C 7,2 C 92 % 1008,0 hPa 0,0 l/m 0 min 0 min 0 W/m 14,6 km/h (3 Bft)
09.11.2014 21:28 8,6 C 7,2 C 92 % 1008,0 hPa 0,0 l/m 0 min 0 min 0 W/m 16,7 km/h (3 Bft)
09.11.2014 21:30 8,7 C 7,2 C 92 % 1008,1 hPa 0,0 l/m 0 min 0 min 0 W/m 14,6 km/h (3 Bft)
09.11.2014 21:32 8,7 C 7,2 C 92 % 1008,2 hPa 0,0 l/m 0 min 0 min 0 W/m 27,2 km/h (4 Bft)
09.11.2014 21:34 8,7 C 7,2 C 92 % 1008,1 hPa 0,0 l/m 0 min 0 min 0 W/m 16,7 km/h (3 Bft)
09.11.2014 21:36 8,6 C 7,2 C 92 % 1008,0 hPa 0,0 l/m 0 min 0 min 0 W/m 14,6 km/h (3 Bft)
09.11.2014 21:38 8,7 C 7,2 C 92 % 1008,1 hPa 0,0 l/m 0 min 0 min 0 W/m 12,6 km/h (3 Bft)
09.11.2014 21:40 8,7 C 7,2 C 92 % 1008,2 hPa 0,0 l/m 0 min 0 min 0 W/m 12,6 km/h (3 Bft)
09.11.2014 21:42 8,7 C 7,2 C 93 % 1008,1 hPa 0,0 l/m 0 min 0 min 0 W/m 14,6 km/h (3 Bft)
09.11.2014 21:44 8,7 C 7,8 C 93 % 1008,3 hPa 0,0 l/m 0 min 0 min 0 W/m 10,5 km/h (2 Bft)
09.11.2014 21:46 8,7 C 7,2 C 93 % 1008,3 hPa 0,0 l/m 0 min 0 min 0 W/m 14,6 km/h (3 Bft)
09.11.2014 21:48 8,7 C 7,2 C 93 % 1008,3 hPa 0,0 l/m 0 min 0 min 0 W/m 16,7 km/h (3 Bft)
09.11.2014 21:50 8,7 C 7,2 C 93 % 1008,3 hPa 0,0 l/m 0 min 0 min 0 W/m 16,7 km/h (3 Bft)
09.11.2014 21:52 8,7 C 7,2 C 93 % 1008,3 hPa 0,0 l/m 0 min 0 min 0 W/m 12,6 km/h (3 Bft)
09.11.2014 21:54 8,7 C 7,2 C 93 % 1008,3 hPa 0,0 l/m 0 min 0 min 0 W/m 12,6 km/h (3 Bft)
09.11.2014 21:56 8,7 C 7,8 C 93 % 1008,2 hPa 0,0 l/m 0 min 0 min 0 W/m 16,7 km/h (3 Bft)
09.11.2014 21:58 8,7 C 7,8 C 93 % 1008,3 hPa 0,0 l/m 0 min 0 min 0 W/m 12,6 km/h (3 Bft)
09.11.2014 22:00 8,7 C 7,2 C 93 % 1008,2 hPa 0,0 l/m 0 min 0 min 0 W/m 12,6 km/h (3 Bft)
09.11.2014 22:02 8,7 C 7,2 C 93 % 1008,3 hPa 0,0 l/m 0 min 0 min 0 W/m 10,5 km/h (2 Bft)
09.11.2014 22:04 8,7 C 7,2 C 93 % 1008,4 hPa 0,0 l/m 0 min 0 min 0 W/m 12,6 km/h (3 Bft)
09.11.2014 22:06 8,7 C 7,2 C 93 % 1008,4 hPa 0,0 l/m 0 min 0 min 0 W/m 14,6 km/h (3 Bft)
09.11.2014 22:08 8,7 C 7,2 C 93 % 1008,4 hPa 0,0 l/m 0 min 0 min 0 W/m 8,4 km/h (2 Bft)
09.11.2014 22:10 8,7 C 7,2 C 93 % 1008,6 hPa 0,0 l/m 0 min 0 min 0 W/m 10,5 km/h (2 Bft)
09.11.2014 22:12 8,7 C 7,2 C 93 % 1008,5 hPa 0,0 l/m 0 min 0 min 0 W/m 14,6 km/h (3 Bft)
09.11.2014 22:14 8,7 C 7,8 C 93 % 1008,5 hPa 0,0 l/m 0 min 0 min 0 W/m 16,7 km/h (3 Bft)
09.11.2014 22:16 8,7 C 7,8 C 93 % 1008,5 hPa 0,0 l/m 0 min 0 min 0 W/m 12,6 km/h (3 Bft)
09.11.2014 22:18 8,7 C 7,8 C 93 % 1008,5 hPa 0,0 l/m 0 min 0 min 0 W/m 16,7 km/h (3 Bft)
09.11.2014 22:20 8,7 C 7,8 C 93 % 1008,6 hPa 0,0 l/m 0 min 0 min 0 W/m 18,8 km/h (3 Bft)
09.11.2014 22:22 8,8 C 7,8 C 93 % 1008,6 hPa 0,0 l/m 0 min 0 min 0 W/m 14,6 km/h (3 Bft)
09.11.2014 22:24 8,8 C 7,8 C 93 % 1008,6 hPa 0,0 l/m 0 min 0 min 0 W/m 16,7 km/h (3 Bft)
09.11.2014 22:26 8,8 C 7,8 C 93 % 1008,6 hPa 0,0 l/m 0 min 0 min 0 W/m 18,8 km/h (3 Bft)
09.11.2014 22:28 8,8 C 7,8 C 93 % 1008,6 hPa 0,0 l/m 0 min 0 min 0 W/m 16,7 km/h (3 Bft)
09.11.2014 22:30 8,8 C 7,8 C 93 % 1008,5 hPa 0,0 l/m 0 min 0 min 0 W/m 14,6 km/h (3 Bft)
09.11.2014 22:32 8,8 C 7,8 C 93 % 1008,6 hPa 0,0 l/m 0 min 0 min 0 W/m 18,8 km/h (3 Bft)
09.11.2014 22:34 8,8 C 7,8 C 93 % 1008,5 hPa 0,0 l/m 0 min 0 min 0 W/m 16,7 km/h (3 Bft)
09.11.2014 22:36 8,8 C 7,8 C 93 % 1008,6 hPa 0,0 l/m 0 min 0 min 0 W/m 18,8 km/h (3 Bft)
09.11.2014 22:38 8,8 C 7,8 C 93 % 1008,6 hPa 0,0 l/m 0 min 0 min 0 W/m 14,6 km/h (3 Bft)
09.11.2014 22:40 8,8 C 7,8 C 93 % 1008,6 hPa 0,0 l/m 0 min 0 min 0 W/m 16,7 km/h (3 Bft)
09.11.2014 22:42 8,8 C 7,8 C 93 % 1008,6 hPa 0,0 l/m 0 min 0 min 0 W/m 18,8 km/h (3 Bft)
09.11.2014 22:44 8,8 C 7,8 C 93 % 1008,6 hPa 0,0 l/m 0 min 0 min 0 W/m 20,9 km/h (4 Bft)
09.11.2014 22:46 8,9 C 7,8 C 93 % 1008,6 hPa 0,0 l/m 0 min 0 min 0 W/m 16,7 km/h (3 Bft)
09.11.2014 22:48 8,8 C 7,8 C 93 % 1008,6 hPa 0,0 l/m 0 min 0 min 0 W/m 23,0 km/h (4 Bft)
09.11.2014 22:50 8,9 C 7,8 C 93 % 1008,6 hPa 0,0 l/m 0 min 0 min 0 W/m 14,6 km/h (3 Bft)
09.11.2014 22:52 8,9 C 7,8 C 93 % 1008,6 hPa 0,0 l/m 0 min 0 min 0 W/m 12,6 km/h (3 Bft)
09.11.2014 22:54 8,9 C 7,8 C 93 % 1008,7 hPa 0,0 l/m 0 min 0 min 0 W/m 20,9 km/h (4 Bft)
09.11.2014 22:56 8,9 C 7,8 C 93 % 1008,7 hPa 0,0 l/m 0 min 0 min 0 W/m 14,6 km/h (3 Bft)
09.11.2014 22:58 8,9 C 7,8 C 93 % 1008,6 hPa 0,0 l/m 0 min 0 min 0 W/m 14,6 km/h (3 Bft)
09.11.2014 23:00 8,9 C 7,8 C 93 % 1008,6 hPa 0,0 l/m 0 min 0 min 0 W/m 12,6 km/h (3 Bft)
09.11.2014 23:02 8,9 C 7,8 C 93 % 1008,6 hPa 0,0 l/m 0 min 0 min 0 W/m 14,6 km/h (3 Bft)
09.11.2014 23:04 8,9 C 7,8 C 93 % 1008,6 hPa 0,0 l/m 0 min 0 min 0 W/m 14,6 km/h (3 Bft)
09.11.2014 23:06 8,9 C 7,8 C 93 % 1008,6 hPa 0,0 l/m 0 min 0 min 0 W/m 10,5 km/h (2 Bft)
09.11.2014 23:08 8,9 C 7,8 C 93 % 1008,7 hPa 0,0 l/m 0 min 0 min 0 W/m 12,6 km/h (3 Bft)
09.11.2014 23:10 8,9 C 7,8 C 93 % 1008,7 hPa 0,0 l/m 0 min 0 min 0 W/m 10,5 km/h (2 Bft)
09.11.2014 23:12 8,9 C 7,8 C 93 % 1008,7 hPa 0,0 l/m 0 min 0 min 0 W/m 8,4 km/h (2 Bft)
09.11.2014 23:14 8,9 C 7,8 C 93 % 1008,7 hPa 0,0 l/m 0 min 0 min 0 W/m 10,5 km/h (2 Bft)
09.11.2014 23:16 8,9 C 7,8 C 93 % 1008,7 hPa 0,0 l/m 0 min 0 min 0 W/m 10,5 km/h (2 Bft)
09.11.2014 23:18 8,9 C 7,8 C 93 % 1008,7 hPa 0,0 l/m 0 min 0 min 0 W/m 8,4 km/h (2 Bft)
09.11.2014 23:20 8,9 C 7,8 C 93 % 1008,8 hPa 0,0 l/m 0 min 0 min 0 W/m 10,5 km/h (2 Bft)
09.11.2014 23:22 8,9 C 7,8 C 93 % 1008,7 hPa 0,0 l/m 0 min 0 min 0 W/m 12,6 km/h (3 Bft)
09.11.2014 23:24 8,9 C 7,8 C 92 % 1008,7 hPa 0,0 l/m 0 min 0 min 0 W/m 14,6 km/h (3 Bft)
09.11.2014 23:26 8,9 C 7,8 C 92 % 1008,7 hPa 0,0 l/m 0 min 0 min 0 W/m 10,5 km/h (2 Bft)
09.11.2014 23:28 8,9 C 7,8 C 93 % 1008,7 hPa 0,0 l/m 0 min 2 min 0 W/m 8,4 km/h (2 Bft)
09.11.2014 23:30 8,9 C 7,8 C 93 % 1008,7 hPa 0,0 l/m 0 min 0 min 0 W/m 10,5 km/h (2 Bft)
09.11.2014 23:32 8,9 C 7,2 C 93 % 1008,6 hPa 0,0 l/m 0 min 2 min 0 W/m 6,3 km/h (2 Bft)
09.11.2014 23:34 8,9 C 7,2 C 93 % 1008,7 hPa 0,0 l/m 0 min 0 min 0 W/m 6,3 km/h (2 Bft)
09.11.2014 23:36 8,9 C 7,2 C 93 % 1008,6 hPa 0,0 l/m 0 min 0 min 0 W/m 8,4 km/h (2 Bft)
09.11.2014 23:38 8,9 C 7,2 C 93 % 1008,6 hPa 0,0 l/m 0 min 0 min 0 W/m 8,4 km/h (2 Bft)
09.11.2014 23:40 8,9 C 7,2 C 93 % 1008,6 hPa 0,0 l/m 0 min 0 min 0 W/m 8,4 km/h (2 Bft)
09.11.2014 23:42 8,9 C 7,2 C 93 % 1008,7 hPa 0,0 l/m 0 min 0 min 0 W/m 8,4 km/h (2 Bft)
09.11.2014 23:44 8,9 C 7,2 C 93 % 1008,7 hPa 0,0 l/m 0 min 0 min 0 W/m 6,3 km/h (2 Bft)
09.11.2014 23:46 8,9 C 7,2 C 93 % 1008,8 hPa 0,0 l/m 0 min 0 min 0 W/m 6,3 km/h (2 Bft)
09.11.2014 23:48 8,9 C 7,2 C 93 % 1008,7 hPa 0,0 l/m 0 min 0 min 0 W/m 4,2 km/h (1 Bft)
09.11.2014 23:50 8,9 C 7,2 C 93 % 1008,7 hPa 0,0 l/m 0 min 0 min 0 W/m 8,4 km/h (2 Bft)
09.11.2014 23:52 8,9 C 7,2 C 93 % 1008,7 hPa 0,0 l/m 0 min 2 min 0 W/m 8,4 km/h (2 Bft)
09.11.2014 23:54 8,9 C 7,2 C 93 % 1008,7 hPa 0,0 l/m 0 min 2 min 0 W/m 8,4 km/h (2 Bft)
09.11.2014 23:56 8,9 C 7,2 C 93 % 1008,7 hPa 0,0 l/m 0 min 2 min 0 W/m 8,4 km/h (2 Bft)
09.11.2014 23:58 8,9 C 7,2 C 93 % 1008,7 hPa 0,0 l/m 0 min 2 min 0 W/m 8,4 km/h (2 Bft)
_ Min-Zeit 07:50 03:52 14:02 14:12 - - - - 23:48
Minimum _ 6,5 C 5,0 C 77 % 1006,5 hPa - - - - 4,2 km/h (1 Bft)
_ Max-Zeit 13:58 13:46 08:36 00:00 00:00 08:10 23:28 11:46 11:06
Maximum _ 12,9 C 11,1 C 95 % 1008,9 hPa 0,0 l/m 2 min 2 min 455 W/m 35,6 km/h
O-SO (5 Bft)
Durchschnitt _ 8,9 C 7,4 C 90 % 1007,7 hPa #0,0 l/m #4:53 h #12 min. 165 W/m 15,9 km/h (3 Bft)
© 2014 W. Hausmann